Time,TemperatureF,DewpointF,PressureIn,WindDirection,WindDirectionDegrees,WindSpeedMPH,WindSpeedGustMPH,Humidity,HourlyPrecipIn,Conditions,Clouds,dailyrainin,SoftwareType,DateUTC
2013-10-28 00:00:00,26.1,22.2,30.06,NW,316,5.4,5.8,85,0.00,,,0.00,VWS V15.00,2013-10-28 06:00:00,
2013-10-28 00:01:00,25.9,22.0,30.06,North,349,4.9,4.9,85,0.00,,---,0.00,VWS V14.01,2013-10-28 06:01:00,
2013-10-28 00:02:00,25.9,22.0,30.06,North,353,0.0,3.6,85,0.00,,---,0.00,VWS V14.01,2013-10-28 06:02:00,
2013-10-28 00:04:00,25.9,22.0,30.06,NNW,343,2.7,3.6,85,0.00,,---,0.00,VWS V14.01,2013-10-28 06:04:00,
2013-10-28 00:05:00,25.9,22.0,30.06,NNW,338,3.6,3.6,85,0.00,,---,0.00,VWS V14.01,2013-10-28 06:05:00,
2013-10-28 00:06:00,25.9,22.0,30.06,NW,313,3.6,3.6,85,0.00,,---,0.00,VWS V14.01,2013-10-28 06:06:00,
2013-10-28 00:07:00,25.9,22.0,30.06,NW,311,3.1,4.0,85,0.00,,---,0.00,VWS V14.01,2013-10-28 06:07:00,
2013-10-28 00:09:00,25.7,21.8,30.06,NNW,340,4.0,5.4,85,0.00,,---,0.00,VWS V14.01,2013-10-28 06:09:00,
2013-10-28 00:10:00,25.7,21.5,30.06,NNW,344,3.6,5.4,84,0.00,,---,0.00,VWS V14.01,2013-10-28 06:10:00,
2013-10-28 00:11:00,25.7,21.5,30.06,NNW,343,4.0,4.0,84,0.00,,---,0.00,VWS V14.01,2013-10-28 06:11:00,
2013-10-28 00:12:00,25.5,21.4,30.06,NNW,337,4.9,4.9,84,0.00,,---,0.00,VWS V14.01,2013-10-28 06:12:00,
2013-10-28 00:14:00,25.5,21.4,30.06,North,0,5.4,5.4,84,0.00,,---,0.00,VWS V14.01,2013-10-28 06:14:00,
2013-10-28 00:15:00,25.3,21.2,30.06,North,353,4.9,5.8,84,0.00,,---,0.00,VWS V14.01,2013-10-28 06:15:00,
2013-10-28 00:16:00,25.3,20.9,30.06,NNW,337,6.3,6.3,83,0.00,,---,0.00,VWS V14.01,2013-10-28 06:16:00,
2013-10-28 00:17:00,25.3,20.9,30.06,NNW,342,5.4,5.4,83,0.00,,---,0.00,VWS V14.01,2013-10-28 06:17:00,
2013-10-28 00:19:00,25.3,20.9,30.06,NNE,17,5.4,5.4,83,0.00,,---,0.00,VWS V14.01,2013-10-28 06:19:00,
2013-10-28 00:20:00,25.2,20.5,30.06,WNW,298,3.1,5.4,82,0.00,,---,0.00,VWS V14.01,2013-10-28 06:20:00,
2013-10-28 00:21:00,25.2,20.5,30.06,NW,324,3.1,3.6,82,0.00,,---,0.00,VWS V14.01,2013-10-28 06:21:00,
2013-10-28 00:22:00,25.2,20.5,30.06,North,357,4.0,4.0,82,0.00,,---,0.00,VWS V14.01,2013-10-28 06:22:00,
2013-10-28 00:23:00,25.2,20.5,30.06,North,3,3.1,3.1,82,0.00,,---,0.00,VWS V14.01,2013-10-28 06:23:00,
2013-10-28 00:24:00,25.2,20.5,30.06,NW,309,2.2,2.7,82,0.00,,---,0.00,VWS V14.01,2013-10-28 06:24:00,
2013-10-28 00:25:00,25.2,20.5,30.06,NW,310,3.6,3.6,82,0.00,,---,0.00,VWS V14.01,2013-10-28 06:25:00,
2013-10-28 00:26:00,25.2,20.5,30.06,NNW,342,2.7,2.7,82,0.00,,---,0.00,VWS V14.01,2013-10-28 06:26:00,
2013-10-28 00:27:00,25.2,20.5,30.06,North,0,3.1,3.6,82,0.00,,---,0.00,VWS V14.01,2013-10-28 06:27:00,
2013-10-28 00:28:00,25.2,20.5,30.06,NNW,327,3.1,3.1,82,0.00,,---,0.00,VWS V14.01,2013-10-28 06:28:00,
2013-10-28 00:29:00,25.0,20.3,30.06,NNW,335,3.6,3.6,82,0.00,,---,0.00,VWS V14.01,2013-10-28 06:29:00,
2013-10-28 00:30:00,25.0,20.0,30.06,NNW,337,4.9,4.9,81,0.00,,---,0.00,VWS V14.01,2013-10-28 06:30:00,
2013-10-28 00:31:00,25.0,20.0,30.09,North,0,4.9,4.9,81,0.00,,---,0.00,VWS V14.01,2013-10-28 06:31:00,
2013-10-28 00:33:00,25.0,20.0,30.09,NNW,331,2.7,3.6,81,0.00,,---,0.00,VWS V14.01,2013-10-28 06:33:00,
2013-10-28 00:34:00,25.0,20.0,30.09,NNW,343,2.7,2.7,81,0.00,,---,0.00,VWS V14.01,2013-10-28 06:34:00,
2013-10-28 00:35:00,24.8,19.8,30.09,NNW,345,3.6,5.4,81,0.00,,---,0.00,VWS V14.01,2013-10-28 06:35:00,
2013-10-28 00:37:00,24.8,19.8,30.09,NW,309,3.1,3.6,81,0.00,,---,0.00,VWS V14.01,2013-10-28 06:37:00,
2013-10-28 00:38:00,24.8,19.8,30.09,North,350,3.6,3.6,81,0.00,,---,0.00,VWS V14.01,2013-10-28 06:38:00,
2013-10-28 00:39:00,24.8,19.8,30.09,NNW,332,5.4,5.4,81,0.00,,---,0.00,VWS V14.01,2013-10-28 06:39:00,
2013-10-28 00:40:00,24.6,19.6,30.09,NNW,332,3.1,3.1,81,0.00,,---,0.00,VWS V14.01,2013-10-28 06:40:00,
2013-10-28 00:42:00,24.6,19.3,30.09,North,353,2.2,2.7,80,0.00,,---,0.00,VWS V14.01,2013-10-28 06:42:00,
2013-10-28 00:43:00,24.6,19.3,30.09,NNW,329,4.0,4.9,80,0.00,,---,0.00,VWS V14.01,2013-10-28 06:43:00,
2013-10-28 00:44:00,24.4,19.2,30.09,North,353,4.9,6.3,80,0.00,,---,0.00,VWS V14.01,2013-10-28 06:44:00,
2013-10-28 00:45:00,24.4,18.9,30.09,NNW,345,3.1,4.0,79,0.00,,---,0.00,VWS V14.01,2013-10-28 06:45:00,
2013-10-28 00:47:00,24.4,18.9,30.09,North,357,4.0,4.0,79,0.00,,---,0.00,VWS V14.01,2013-10-28 06:47:00,
2013-10-28 00:48:00,24.4,18.6,30.09,NNW,333,4.0,4.0,78,0.00,,---,0.00,VWS V14.01,2013-10-28 06:48:00,
2013-10-28 00:49:00,24.4,18.6,30.09,NNW,338,3.6,3.6,78,0.00,,---,0.00,VWS V14.01,2013-10-28 06:49:00,
2013-10-28 00:50:00,24.4,18.6,30.09,North,5,6.3,6.3,78,0.00,,---,0.00,VWS V14.01,2013-10-28 06:50:00,
2013-10-28 00:51:00,24.4,18.6,30.09,North,357,4.0,5.8,78,0.00,,---,0.00,VWS V14.01,2013-10-28 06:51:00,
2013-10-28 00:52:00,24.3,18.4,30.09,North,357,3.1,3.1,78,0.00,,---,0.00,VWS V14.01,2013-10-28 06:52:00,
2013-10-28 00:53:00,24.3,18.4,30.09,NNW,330,3.1,3.1,78,0.00,,---,0.00,VWS V14.01,2013-10-28 06:53:00,
2013-10-28 00:54:00,24.3,18.1,30.09,North,357,5.8,5.8,77,0.00,,---,0.00,VWS V14.01,2013-10-28 06:54:00,
2013-10-28 00:55:00,24.3,18.1,30.09,North,1,5.8,5.8,77,0.00,,---,0.00,VWS V14.01,2013-10-28 06:55:00,
2013-10-28 00:56:00,24.1,17.9,30.09,North,7,3.6,6.3,77,0.00,,---,0.00,VWS V14.01,2013-10-28 06:56:00,
2013-10-28 00:57:00,24.1,17.9,30.09,NNW,333,2.7,2.7,77,0.00,,---,0.00,VWS V14.01,2013-10-28 06:57:00,
2013-10-28 00:59:00,24.1,17.9,30.09,North,353,2.7,4.9,77,0.00,,---,0.00,VWS V14.01,2013-10-28 06:59:00,
2013-10-28 01:00:00,24.1,17.9,30.09,North,0,4.9,4.9,77,0.00,,---,0.00,VWS V14.01,2013-10-28 07:00:00,
2013-10-28 01:01:00,24.1,17.9,30.09,NNW,340,2.7,2.7,77,0.00,,---,0.00,VWS V14.01,2013-10-28 07:01:00,
2013-10-28 01:02:00,24.1,17.9,30.09,NNW,333,4.0,4.0,77,0.00,,---,0.00,VWS V14.01,2013-10-28 07:02:00,
2013-10-28 01:04:00,23.9,17.5,30.09,NNW,330,3.1,3.1,76,0.00,,---,0.00,VWS V14.01,2013-10-28 07:04:00,
2013-10-28 01:05:00,23.9,17.5,30.09,NNW,327,3.1,3.1,76,0.00,,---,0.00,VWS V14.01,2013-10-28 07:05:00,
2013-10-28 01:06:00,23.9,17.5,30.09,NW,310,3.1,3.1,76,0.00,,---,0.00,VWS V14.01,2013-10-28 07:06:00,
2013-10-28 01:09:00,23.7,17.3,30.09,North,353,5.8,5.8,76,0.00,,---,0.00,VWS V14.01,2013-10-28 07:09:00,
2013-10-28 01:10:00,23.7,17.3,30.09,North,1,4.9,4.9,76,0.00,,---,0.00,VWS V14.01,2013-10-28 07:10:00,
2013-10-28 01:11:00,23.7,17.3,30.09,NNW,331,4.0,4.0,76,0.00,,---,0.00,VWS V14.01,2013-10-28 07:11:00,
2013-10-28 01:12:00,23.5,17.1,30.09,North,357,7.6,7.6,76,0.00,,---,0.00,VWS V14.01,2013-10-28 07:12:00,
2013-10-28 01:14:00,23.5,16.8,30.09,North,357,5.8,6.3,75,0.00,,---,0.00,VWS V14.01,2013-10-28 07:14:00,
2013-10-28 01:15:00,23.4,16.6,30.09,North,353,5.8,6.3,75,0.00,,---,0.00,VWS V14.01,2013-10-28 07:15:00,
2013-10-28 01:16:00,23.4,16.6,30.09,NNW,329,3.6,4.0,75,0.00,,---,0.00,VWS V14.01,2013-10-28 07:16:00,
2013-10-28 01:17:00,23.4,16.6,30.09,NW,309,4.9,4.9,75,0.00,,---,0.00,VWS V14.01,2013-10-28 07:17:00,
2013-10-28 01:19:00,23.2,16.5,30.09,NNW,329,2.7,4.0,75,0.00,,---,0.00,VWS V14.01,2013-10-28 07:19:00,
2013-10-28 01:20:00,23.2,16.5,30.09,North,353,3.1,4.0,75,0.00,,---,0.00,VWS V14.01,2013-10-28 07:20:00,
2013-10-28 01:21:00,23.2,16.5,30.09,NNW,343,4.9,4.9,75,0.00,,---,0.00,VWS V14.01,2013-10-28 07:21:00,
2013-10-28 01:22:00,23.0,16.3,30.09,North,350,3.6,3.6,75,0.00,,---,0.00,VWS V14.01,2013-10-28 07:22:00,
2013-10-28 01:25:00,23.0,16.3,30.09,NW,321,2.7,4.9,75,0.00,,---,0.00,VWS V14.01,2013-10-28 07:25:00,
2013-10-28 01:26:00,23.0,16.3,30.09,North,0,4.0,5.8,75,0.00,,---,0.00,VWS V14.01,2013-10-28 07:26:00,
2013-10-28 01:27:00,23.0,16.3,30.09,North,353,3.6,5.4,75,0.00,,---,0.00,VWS V14.01,2013-10-28 07:27:00,
2013-10-28 01:30:00,22.8,16.1,30.09,NNW,336,0.0,0.0,75,0.00,,---,0.00,VWS V14.01,2013-10-28 07:30:00,
2013-10-28 01:31:00,22.8,16.4,30.09,NNW,330,2.7,3.1,76,0.00,,---,0.00,VWS V14.01,2013-10-28 07:31:00,
2013-10-28 01:33:00,22.8,16.4,30.09,NW,322,2.2,2.2,76,0.00,,---,0.00,VWS V14.01,2013-10-28 07:33:00,
2013-10-28 01:35:00,22.8,16.4,30.09,NNE,28,5.8,5.8,76,0.00,,---,0.00,VWS V14.01,2013-10-28 07:35:00,
2013-10-28 01:36:00,22.8,16.4,30.09,NNW,343,5.4,5.4,76,0.00,,---,0.00,VWS V14.01,2013-10-28 07:36:00,
2013-10-28 01:37:00,22.8,16.4,30.09,NNW,343,3.6,3.6,76,0.00,,---,0.00,VWS V14.01,2013-10-28 07:37:00,
2013-10-28 01:38:00,22.8,16.4,30.09,NNW,341,3.1,4.0,76,0.00,,---,0.00,VWS V14.01,2013-10-28 07:38:00,
2013-10-28 01:40:00,22.6,16.2,30.09,North,353,2.2,2.7,76,0.00,,---,0.00,VWS V14.01,2013-10-28 07:40:00,
2013-10-28 01:41:00,22.6,16.2,30.09,North,350,2.7,2.7,76,0.00,,---,0.00,VWS V14.01,2013-10-28 07:41:00,
2013-10-28 01:42:00,22.6,16.2,30.09,North,0,4.0,4.0,76,0.00,,---,0.00,VWS V14.01,2013-10-28 07:42:00,
2013-10-28 01:43:00,22.6,16.2,30.09,North,10,4.9,4.9,76,0.00,,---,0.00,VWS V14.01,2013-10-28 07:43:00,
2013-10-28 01:45:00,22.6,16.2,30.09,NNE,19,4.9,4.9,76,0.00,,---,0.00,VWS V14.01,2013-10-28 07:45:00,
2013-10-28 01:46:00,22.6,16.2,30.09,North,11,4.0,4.9,76,0.00,,---,0.00,VWS V14.01,2013-10-28 07:46:00,
2013-10-28 01:47:00,22.5,16.0,30.09,NNW,339,0.0,2.7,76,0.00,,---,0.00,VWS V14.01,2013-10-28 07:47:00,
2013-10-28 01:48:00,22.5,16.0,30.09,NW,318,2.7,3.6,76,0.00,,---,0.00,VWS V14.01,2013-10-28 07:48:00,
2013-10-28 01:51:00,22.5,16.0,30.09,North,353,2.7,3.1,76,0.00,,---,0.00,VWS V14.01,2013-10-28 07:51:00,
2013-10-28 01:52:00,22.5,16.0,30.09,NNW,335,2.7,3.1,76,0.00,,---,0.00,VWS V14.01,2013-10-28 07:52:00,
2013-10-28 01:53:00,22.5,16.0,30.09,NNW,334,2.7,2.7,76,0.00,,---,0.00,VWS V14.01,2013-10-28 07:53:00,
2013-10-28 01:56:00,22.3,15.9,30.09,NNW,348,3.6,4.0,76,0.00,,---,0.00,VWS V14.01,2013-10-28 07:56:00,
2013-10-28 01:58:00,22.3,15.9,30.09,NW,323,2.2,2.7,76,0.00,,---,0.00,VWS V14.01,2013-10-28 07:58:00,
2013-10-28 02:00:00,22.3,15.9,30.09,NNE,14,5.8,6.3,76,0.00,,,0.00,VWS V15.00,2013-10-28 08:00:00,
2013-10-28 02:01:00,22.1,15.7,30.09,North,353,3.6,4.0,76,0.00,,---,0.00,VWS V14.01,2013-10-28 08:01:00,
2013-10-28 02:02:00,22.1,15.7,30.09,North,353,0.0,0.0,76,0.00,,---,0.00,VWS V14.01,2013-10-28 08:02:00,
2013-10-28 02:03:00,22.1,15.4,30.09,NW,317,2.2,3.6,75,0.00,,---,0.00,VWS V14.01,2013-10-28 08:03:00,
2013-10-28 02:06:00,21.9,15.2,30.09,NW,320,2.7,2.7,75,0.00,,---,0.00,VWS V14.01,2013-10-28 08:06:00,
2013-10-28 02:07:00,21.9,15.2,30.09,NW,314,2.7,4.0,75,0.00,,---,0.00,VWS V14.01,2013-10-28 08:07:00,
2013-10-28 02:08:00,21.9,15.5,30.09,North,0,5.4,5.4,76,0.00,,---,0.00,VWS V14.01,2013-10-28 08:08:00,
2013-10-28 02:09:00,21.9,15.2,30.09,NW,316,3.6,3.6,75,0.00,,---,0.00,VWS V14.01,2013-10-28 08:09:00,
2013-10-28 02:11:00,21.9,15.2,30.09,NNW,342,2.7,2.7,75,0.00,,---,0.00,VWS V14.01,2013-10-28 08:11:00,
2013-10-28 02:12:00,21.9,15.2,30.09,North,0,4.0,4.0,75,0.00,,---,0.00,VWS V14.01,2013-10-28 08:12:00,
2013-10-28 02:13:00,21.9,15.2,30.09,NNW,342,3.1,3.1,75,0.00,,---,0.00,VWS V14.01,2013-10-28 08:13:00,
2013-10-28 02:14:00,21.9,15.2,30.09,North,357,2.7,3.1,75,0.00,,---,0.00,VWS V14.01,2013-10-28 08:14:00,
2013-10-28 02:15:00,21.9,15.2,30.09,North,353,3.1,4.0,75,0.00,,---,0.00,VWS V14.01,2013-10-28 08:15:00,
2013-10-28 02:16:00,21.7,15.1,30.09,NNW,341,0.0,2.7,75,0.00,,---,0.00,VWS V14.01,2013-10-28 08:16:00,
2013-10-28 02:17:00,21.7,15.1,30.09,NNW,343,2.7,2.7,75,0.00,,---,0.00,VWS V14.01,2013-10-28 08:17:00,
2013-10-28 02:19:00,21.7,15.1,30.09,NW,324,2.7,3.1,75,0.00,,---,0.00,VWS V14.01,2013-10-28 08:19:00,
2013-10-28 02:20:00,21.7,15.1,30.09,NNW,342,3.6,3.6,75,0.00,,---,0.00,VWS V14.01,2013-10-28 08:20:00,
2013-10-28 02:21:00,21.7,15.4,30.09,NW,319,2.7,4.0,76,0.00,,---,0.00,VWS V14.01,2013-10-28 08:21:00,
2013-10-28 02:23:00,21.7,15.4,30.09,NNW,337,0.0,2.7,76,0.00,,---,0.00,VWS V14.01,2013-10-28 08:23:00,
2013-10-28 02:24:00,21.6,15.2,30.09,NNW,338,2.7,2.7,76,0.00,,---,0.00,VWS V14.01,2013-10-28 08:24:00,
2013-10-28 02:25:00,21.6,15.2,30.09,NNW,332,3.6,3.6,76,0.00,,---,0.00,VWS V14.01,2013-10-28 08:25:00,
2013-10-28 02:26:00,21.6,15.2,30.09,NW,310,2.2,2.2,76,0.00,,---,0.00,VWS V14.01,2013-10-28 08:26:00,
2013-10-28 02:28:00,21.6,15.2,30.09,NW,314,0.0,0.0,76,0.00,,---,0.00,VWS V14.01,2013-10-28 08:28:00,
2013-10-28 02:29:00,21.6,15.2,30.09,NW,314,3.1,3.1,76,0.00,,---,0.00,VWS V14.01,2013-10-28 08:29:00,
2013-10-28 02:30:00,21.6,15.2,30.09,NNW,333,3.6,3.6,76,0.00,,---,0.00,VWS V14.01,2013-10-28 08:30:00,
2013-10-28 02:32:00,21.4,15.0,30.09,NNW,348,3.1,3.1,76,0.00,,---,0.00,VWS V14.01,2013-10-28 08:32:00,
2013-10-28 02:34:00,21.4,15.0,30.09,North,0,4.9,4.9,76,0.00,,---,0.00,VWS V14.01,2013-10-28 08:34:00,
2013-10-28 02:35:00,21.4,15.0,30.09,NNW,338,3.1,3.1,76,0.00,,---,0.00,VWS V14.01,2013-10-28 08:35:00,
2013-10-28 02:37:00,21.4,15.0,30.09,NNW,337,3.1,3.1,76,0.00,,---,0.00,VWS V14.01,2013-10-28 08:37:00,
2013-10-28 02:39:00,21.4,15.0,30.09,NNW,335,3.6,3.6,76,0.00,,---,0.00,VWS V14.01,2013-10-28 08:39:00,
2013-10-28 02:40:00,21.2,14.8,30.09,NNW,348,2.7,4.0,76,0.00,,---,0.00,VWS V14.01,2013-10-28 08:40:00,
2013-10-28 02:42:00,21.2,14.8,30.09,North,353,3.6,3.6,76,0.00,,---,0.00,VWS V14.01,2013-10-28 08:42:00,
2013-10-28 02:44:00,21.2,15.1,30.09,North,0,4.9,4.9,77,0.00,,---,0.00,VWS V14.01,2013-10-28 08:44:00,
2013-10-28 02:45:00,21.2,15.1,30.09,NNW,341,2.7,2.7,77,0.00,,---,0.00,VWS V14.01,2013-10-28 08:45:00,
2013-10-28 02:46:00,21.2,15.1,30.09,NNW,344,3.1,4.0,77,0.00,,---,0.00,VWS V14.01,2013-10-28 08:46:00,
2013-10-28 02:47:00,21.2,15.1,30.09,NNW,342,0.0,0.0,77,0.00,,---,0.00,VWS V14.01,2013-10-28 08:47:00,
2013-10-28 02:49:00,21.2,15.1,30.09,NNW,327,2.7,3.1,77,0.00,,---,0.00,VWS V14.01,2013-10-28 08:49:00,
2013-10-28 02:50:00,21.2,15.1,30.09,NNW,327,2.7,2.7,77,0.00,,---,0.00,VWS V14.01,2013-10-28 08:50:00,
2013-10-28 02:51:00,21.2,15.1,30.09,NNW,330,2.7,2.7,77,0.00,,---,0.00,VWS V14.01,2013-10-28 08:51:00,
2013-10-28 02:52:00,21.2,15.1,30.09,NNW,337,3.1,3.1,77,0.00,,---,0.00,VWS V14.01,2013-10-28 08:52:00,
2013-10-28 02:55:00,21.2,15.1,30.09,NNW,335,2.7,3.1,77,0.00,,---,0.00,VWS V14.01,2013-10-28 08:55:00,
2013-10-28 02:56:00,21.0,14.9,30.09,NNW,327,3.6,3.6,77,0.00,,---,0.00,VWS V14.01,2013-10-28 08:56:00,
2013-10-28 02:57:00,21.0,14.9,30.09,NNW,345,4.0,4.0,77,0.00,,---,0.00,VWS V14.01,2013-10-28 08:57:00,
2013-10-28 03:00:00,21.0,14.9,30.09,NW,316,3.1,3.6,77,0.00,,---,0.00,VWS V14.01,2013-10-28 09:00:00,
2013-10-28 03:01:00,21.0,14.9,30.09,NW,310,3.1,3.1,77,0.00,,---,0.00,VWS V14.01,2013-10-28 09:01:00,
2013-10-28 03:02:00,20.8,14.8,30.09,NNW,342,2.7,3.6,77,0.00,,---,0.00,VWS V14.01,2013-10-28 09:02:00,
2013-10-28 03:05:00,20.8,14.8,30.09,NW,322,2.7,3.6,77,0.00,,---,0.00,VWS V14.01,2013-10-28 09:05:00,
2013-10-28 03:06:00,20.8,14.8,30.09,NW,322,2.7,3.1,77,0.00,,---,0.00,VWS V14.01,2013-10-28 09:06:00,
2013-10-28 03:07:00,20.8,14.8,30.09,NW,322,2.7,2.7,77,0.00,,---,0.00,VWS V14.01,2013-10-28 09:07:00,
2013-10-28 03:10:00,20.8,14.8,30.09,NNW,341,3.6,3.6,77,0.00,,---,0.00,VWS V14.01,2013-10-28 09:10:00,
2013-10-28 03:11:00,20.8,14.8,30.09,NNW,337,3.6,3.6,77,0.00,,---,0.00,VWS V14.01,2013-10-28 09:11:00,
2013-10-28 03:12:00,20.7,14.6,30.09,NNW,336,2.7,2.7,77,0.00,,---,0.00,VWS V14.01,2013-10-28 09:12:00,
2013-10-28 03:13:00,20.7,14.6,30.09,NNW,331,3.1,4.0,77,0.00,,---,0.00,VWS V14.01,2013-10-28 09:13:00,
2013-10-28 03:15:00,20.7,14.6,30.09,NNW,342,4.0,4.0,77,0.00,,,0.00,VWS V15.00,2013-10-28 09:15:00,
2013-10-28 03:16:00,20.7,14.6,30.09,WNW,302,3.6,3.6,77,0.00,,---,0.00,VWS V14.01,2013-10-28 09:16:00,
2013-10-28 03:18:00,20.7,14.6,30.09,North,2,3.1,4.0,77,0.00,,---,0.00,VWS V14.01,2013-10-28 09:18:00,
2013-10-28 03:19:00,20.7,14.6,30.09,North,349,3.6,5.4,77,0.00,,---,0.00,VWS V14.01,2013-10-28 09:19:00,
2013-10-28 03:21:00,20.5,14.4,30.09,NW,308,4.0,4.0,77,0.00,,---,0.00,VWS V14.01,2013-10-28 09:21:00,
2013-10-28 03:22:00,20.5,14.4,30.09,NW,313,2.7,2.7,77,0.00,,---,0.00,VWS V14.01,2013-10-28 09:22:00,
2013-10-28 03:23:00,20.5,14.4,30.09,NW,310,2.7,3.1,77,0.00,,---,0.00,VWS V14.01,2013-10-28 09:23:00,
2013-10-28 03:24:00,20.5,14.4,30.09,NW,310,2.7,2.7,77,0.00,,---,0.00,VWS V14.01,2013-10-28 09:24:00,
2013-10-28 03:26:00,20.5,14.4,30.09,North,0,2.7,3.1,77,0.00,,---,0.00,VWS V14.01,2013-10-28 09:26:00,
2013-10-28 03:27:00,20.5,14.4,30.09,North,0,3.1,4.0,77,0.00,,---,0.00,VWS V14.01,2013-10-28 09:27:00,
2013-10-28 03:28:00,20.5,14.4,30.09,North,353,4.0,4.0,77,0.00,,---,0.00,VWS V14.01,2013-10-28 09:28:00,
2013-10-28 03:29:00,20.5,14.4,30.09,North,353,2.2,2.2,77,0.00,,---,0.00,VWS V14.01,2013-10-28 09:29:00,
2013-10-28 03:30:00,20.5,14.4,30.09,North,357,3.6,4.9,77,0.00,,,0.00,VWS V15.00,2013-10-28 09:30:00,
2013-10-28 03:31:00,20.5,14.4,30.09,NNW,344,2.7,3.6,77,0.00,,---,0.00,VWS V14.01,2013-10-28 09:31:00,
2013-10-28 03:32:00,20.5,14.4,30.09,NW,312,2.7,3.1,77,0.00,,---,0.00,VWS V14.01,2013-10-28 09:32:00,
2013-10-28 03:33:00,20.5,14.4,30.09,WNW,302,2.2,4.0,77,0.00,,---,0.00,VWS V14.01,2013-10-28 09:33:00,
2013-10-28 03:34:00,20.3,14.3,30.09,NNW,341,3.6,3.6,77,0.00,,---,0.00,VWS V14.01,2013-10-28 09:34:00,
2013-10-28 03:36:00,20.3,14.3,30.09,NNW,332,2.7,2.7,77,0.00,,---,0.00,VWS V14.01,2013-10-28 09:36:00,
2013-10-28 03:37:00,20.3,14.3,30.09,NW,326,3.1,3.1,77,0.00,,---,0.00,VWS V14.01,2013-10-28 09:37:00,
2013-10-28 03:38:00,20.3,14.3,30.09,North,353,3.6,3.6,77,0.00,,---,0.00,VWS V14.01,2013-10-28 09:38:00,
2013-10-28 03:39:00,20.3,14.3,30.09,North,353,2.7,3.1,77,0.00,,---,0.00,VWS V14.01,2013-10-28 09:39:00,
2013-10-28 03:41:00,20.3,14.3,30.09,North,7,5.8,5.8,77,0.00,,---,0.00,VWS V14.01,2013-10-28 09:41:00,
2013-10-28 03:42:00,20.3,14.3,30.09,North,3,3.6,3.6,77,0.00,,---,0.00,VWS V14.01,2013-10-28 09:42:00,
2013-10-28 03:43:00,20.3,14.3,30.09,North,353,2.7,3.6,77,0.00,,---,0.00,VWS V14.01,2013-10-28 09:43:00,
2013-10-28 03:44:00,20.3,14.3,30.09,NNW,346,3.6,3.6,77,0.00,,---,0.00,VWS V14.01,2013-10-28 09:44:00,
2013-10-28 03:45:00,20.3,14.3,30.09,North,2,3.6,4.9,77,0.00,,,0.00,VWS V15.00,2013-10-28 09:45:00,
2013-10-28 03:46:00,20.3,14.3,30.09,North,0,2.7,2.7,77,0.00,,---,0.00,VWS V14.01,2013-10-28 09:46:00,
2013-10-28 03:47:00,20.3,14.3,30.09,North,0,2.7,2.7,77,0.00,,---,0.00,VWS V14.01,2013-10-28 09:47:00,
2013-10-28 03:48:00,20.3,14.3,30.09,North,357,4.0,4.0,77,0.00,,---,0.00,VWS V14.01,2013-10-28 09:48:00,
2013-10-28 03:49:00,20.3,14.3,30.09,North,2,5.4,5.4,77,0.00,,---,0.00,VWS V14.01,2013-10-28 09:49:00,
2013-10-28 03:51:00,20.3,14.3,30.09,North,353,0.0,0.0,77,0.00,,---,0.00,VWS V14.01,2013-10-28 09:51:00,
2013-10-28 03:52:00,20.3,14.3,30.09,NW,320,3.6,3.6,77,0.00,,---,0.00,VWS V14.01,2013-10-28 09:52:00,
2013-10-28 03:53:00,20.3,14.3,30.09,NW,319,2.2,2.7,77,0.00,,---,0.00,VWS V14.01,2013-10-28 09:53:00,
2013-10-28 03:54:00,20.3,14.3,30.09,NW,324,2.2,3.1,77,0.00,,---,0.00,VWS V14.01,2013-10-28 09:54:00,
2013-10-28 03:56:00,20.3,14.3,30.09,North,357,4.5,4.9,77,0.00,,---,0.00,VWS V14.01,2013-10-28 09:56:00,
2013-10-28 03:57:00,20.3,14.3,30.09,North,349,3.1,4.5,77,0.00,,---,0.00,VWS V14.01,2013-10-28 09:57:00,
2013-10-28 03:58:00,20.3,14.3,30.09,NNW,345,3.6,3.6,77,0.00,,---,0.00,VWS V14.01,2013-10-28 09:58:00,
2013-10-28 03:59:00,20.3,14.3,30.09,NNW,345,2.2,3.6,77,0.00,,---,0.00,VWS V14.01,2013-10-28 09:59:00,
2013-10-28 04:00:00,20.3,14.3,30.09,NNW,345,2.7,2.7,77,0.00,,,0.00,VWS V15.00,2013-10-28 10:00:00,
2013-10-28 04:01:00,20.3,14.3,30.09,NW,323,2.7,2.7,77,0.00,,---,0.00,VWS V14.01,2013-10-28 10:01:00,
2013-10-28 04:02:00,20.3,14.3,30.09,NW,315,3.1,3.1,77,0.00,,---,0.00,VWS V14.01,2013-10-28 10:02:00,
2013-10-28 04:03:00,20.1,14.1,30.09,NW,313,2.2,3.1,77,0.00,,---,0.00,VWS V14.01,2013-10-28 10:03:00,
2013-10-28 04:04:00,20.1,14.1,30.09,NW,309,2.7,2.7,77,0.00,,---,0.00,VWS V14.01,2013-10-28 10:04:00,
2013-10-28 04:05:00,20.1,14.1,30.09,WNW,299,3.6,3.6,77,0.00,,---,0.00,VWS V14.01,2013-10-28 10:05:00,
2013-10-28 04:07:00,20.1,14.1,30.09,NW,315,2.7,2.7,77,0.00,,---,0.00,VWS V14.01,2013-10-28 10:07:00,
2013-10-28 04:08:00,20.1,14.1,30.09,NW,315,2.2,2.2,77,0.00,,---,0.00,VWS V14.01,2013-10-28 10:08:00,
2013-10-28 04:09:00,20.1,14.1,30.09,NW,312,2.7,2.7,77,0.00,,---,0.00,VWS V14.01,2013-10-28 10:09:00,
2013-10-28 04:10:00,20.1,14.1,30.09,North,0,3.1,3.1,77,0.00,,---,0.00,VWS V14.01,2013-10-28 10:10:00,
2013-10-28 04:11:00,20.1,14.1,30.09,North,0,5.8,5.8,77,0.00,,---,0.00,VWS V14.01,2013-10-28 10:11:00,
2013-10-28 04:12:00,20.1,14.1,30.09,NNW,348,3.6,3.6,77,0.00,,---,0.00,VWS V14.01,2013-10-28 10:12:00,
2013-10-28 04:14:00,20.1,14.1,30.09,NNW,345,0.0,0.0,77,0.00,,---,0.00,VWS V14.01,2013-10-28 10:14:00,
2013-10-28 04:15:00,19.9,13.9,30.09,NNW,345,0.0,0.0,77,0.00,,,0.00,VWS V15.00,2013-10-28 10:15:00,
2013-10-28 04:16:00,19.9,13.9,30.09,NNW,337,0.0,0.0,77,0.00,,---,0.00,VWS V14.01,2013-10-28 10:16:00,
2013-10-28 04:17:00,19.9,13.9,30.09,NNW,331,2.7,3.1,77,0.00,,---,0.00,VWS V14.01,2013-10-28 10:17:00,
2013-10-28 04:19:00,19.9,13.9,30.09,NW,325,2.7,2.7,77,0.00,,---,0.00,VWS V14.01,2013-10-28 10:19:00,
2013-10-28 04:21:00,19.9,13.9,30.09,NW,304,2.2,2.7,77,0.00,,---,0.00,VWS V14.01,2013-10-28 10:21:00,
2013-10-28 04:22:00,19.9,13.9,30.09,North,0,3.1,4.9,77,0.00,,---,0.00,VWS V14.01,2013-10-28 10:22:00,
2013-10-28 04:24:00,19.8,13.7,30.09,NW,321,0.0,0.0,77,0.00,,---,0.00,VWS V14.01,2013-10-28 10:24:00,
2013-10-28 04:26:00,19.8,13.7,30.09,North,357,3.1,3.1,77,0.00,,---,0.00,VWS V14.01,2013-10-28 10:26:00,
2013-10-28 04:27:00,19.8,13.7,30.09,North,0,3.6,4.9,77,0.00,,---,0.00,VWS V14.01,2013-10-28 10:27:00,
2013-10-28 04:29:00,19.8,13.7,30.09,North,353,2.7,2.7,77,0.00,,---,0.00,VWS V14.01,2013-10-28 10:29:00,
2013-10-28 04:30:00,19.8,13.7,30.09,North,353,0.0,0.0,77,0.00,,,0.00,VWS V15.00,2013-10-28 10:30:00,
2013-10-28 04:31:00,19.6,13.6,30.06,North,353,0.0,0.0,77,0.00,,---,0.00,VWS V14.01,2013-10-28 10:31:00,
2013-10-28 04:32:00,19.6,13.6,30.06,North,353,0.0,0.0,77,0.00,,---,0.00,VWS V14.01,2013-10-28 10:32:00,
2013-10-28 04:34:00,19.6,13.6,30.06,North,353,2.7,2.7,77,0.00,,---,0.00,VWS V14.01,2013-10-28 10:34:00,
2013-10-28 04:36:00,19.6,13.6,30.06,North,353,0.0,0.0,77,0.00,,---,0.00,VWS V14.01,2013-10-28 10:36:00,
2013-10-28 04:37:00,19.6,13.6,30.06,North,353,0.0,0.0,77,0.00,,---,0.00,VWS V14.01,2013-10-28 10:37:00,
2013-10-28 04:39:00,19.6,13.6,30.06,NNW,345,0.0,0.0,77,0.00,,---,0.00,VWS V14.01,2013-10-28 10:39:00,
2013-10-28 04:40:00,19.6,13.6,30.06,NNW,345,0.0,0.0,77,0.00,,---,0.00,VWS V14.01,2013-10-28 10:40:00,
2013-10-28 04:42:00,19.6,13.6,30.06,NNW,331,2.7,2.7,77,0.00,,---,0.00,VWS V14.01,2013-10-28 10:42:00,
2013-10-28 04:44:00,19.6,13.6,30.06,NNW,331,2.7,2.7,77,0.00,,---,0.00,VWS V14.01,2013-10-28 10:44:00,
2013-10-28 04:45:00,19.6,13.6,30.06,NNW,331,0.0,2.2,77,0.00,,---,0.00,VWS V14.01,2013-10-28 10:45:00,
2013-10-28 04:47:00,19.6,13.6,30.06,NNW,331,0.0,0.0,77,0.00,,---,0.00,VWS V14.01,2013-10-28 10:47:00,
2013-10-28 04:48:00,19.6,13.6,30.06,NNW,329,0.0,0.0,77,0.00,,---,0.00,VWS V14.01,2013-10-28 10:48:00,
2013-10-28 04:49:00,19.6,13.6,30.06,NW,324,2.7,2.7,77,0.00,,---,0.00,VWS V14.01,2013-10-28 10:49:00,
2013-10-28 04:50:00,19.6,13.6,30.06,NW,320,3.1,3.1,77,0.00,,---,0.00,VWS V14.01,2013-10-28 10:50:00,
2013-10-28 04:52:00,19.6,13.6,30.06,NW,317,2.7,3.1,77,0.00,,---,0.00,VWS V14.01,2013-10-28 10:52:00,
2013-10-28 04:53:00,19.6,13.6,30.06,NNW,333,3.6,3.6,77,0.00,,---,0.00,VWS V14.01,2013-10-28 10:53:00,
2013-10-28 04:55:00,19.4,13.7,30.06,NNW,334,2.7,2.7,78,0.00,,---,0.00,VWS V14.01,2013-10-28 10:55:00,
2013-10-28 04:56:00,19.4,13.7,30.06,NNW,335,0.0,0.0,78,0.00,,---,0.00,VWS V14.01,2013-10-28 10:56:00,
2013-10-28 04:57:00,19.4,13.7,30.06,NNW,333,2.2,2.2,78,0.00,,---,0.00,VWS V14.01,2013-10-28 10:57:00,
2013-10-28 04:58:00,19.4,13.7,30.06,NNW,332,0.0,2.7,78,0.00,,---,0.00,VWS V14.01,2013-10-28 10:58:00,
2013-10-28 05:00:00,19.4,13.7,30.06,NNW,329,0.0,0.0,78,0.00,,---,0.00,VWS V14.01,2013-10-28 11:00:00,
2013-10-28 05:01:00,19.4,13.7,30.09,NNW,327,0.0,0.0,78,0.00,,---,0.00,VWS V14.01,2013-10-28 11:01:00,
2013-10-28 05:02:00,19.4,13.7,30.09,NNW,348,2.7,2.7,78,0.00,,---,0.00,VWS V14.01,2013-10-28 11:02:00,
2013-10-28 05:03:00,19.4,13.7,30.09,NNW,348,2.7,2.7,78,0.00,,---,0.00,VWS V14.01,2013-10-28 11:03:00,
2013-10-28 05:04:00,19.4,13.7,30.09,NNW,348,0.0,2.2,78,0.00,,---,0.00,VWS V14.01,2013-10-28 11:04:00,
2013-10-28 05:05:00,19.4,13.7,30.09,North,353,0.0,0.0,78,0.00,,---,0.00,VWS V14.01,2013-10-28 11:05:00,
2013-10-28 05:06:00,19.4,13.7,30.09,North,353,0.0,0.0,78,0.00,,---,0.00,VWS V14.01,2013-10-28 11:06:00,
2013-10-28 05:07:00,19.4,13.7,30.09,North,353,0.0,0.0,78,0.00,,---,0.00,VWS V14.01,2013-10-28 11:07:00,
2013-10-28 05:08:00,19.4,13.7,30.09,NNW,346,0.0,0.0,78,0.00,,---,0.00,VWS V14.01,2013-10-28 11:08:00,
2013-10-28 05:09:00,19.4,13.7,30.09,NNW,346,0.0,0.0,78,0.00,,---,0.00,VWS V14.01,2013-10-28 11:09:00,
2013-10-28 05:10:00,19.4,13.7,30.09,NNW,327,0.0,0.0,78,0.00,,---,0.00,VWS V14.01,2013-10-28 11:10:00,
2013-10-28 05:11:00,19.4,13.7,30.09,NNW,327,0.0,2.2,78,0.00,,---,0.00,VWS V14.01,2013-10-28 11:11:00,
2013-10-28 05:13:00,19.4,13.7,30.09,NNW,328,0.0,0.0,78,0.00,,---,0.00,VWS V14.01,2013-10-28 11:13:00,
2013-10-28 05:14:00,19.4,13.7,30.09,NW,322,0.0,0.0,78,0.00,,---,0.00,VWS V14.01,2013-10-28 11:14:00,
2013-10-28 05:15:00,19.4,13.7,30.09,NW,322,0.0,0.0,78,0.00,,---,0.00,VWS V14.01,2013-10-28 11:15:00,
2013-10-28 05:17:00,19.4,13.7,30.09,NW,322,0.0,0.0,78,0.00,,---,0.00,VWS V14.01,2013-10-28 11:17:00,
2013-10-28 05:18:00,19.4,13.7,30.09,NW,322,0.0,0.0,78,0.00,,---,0.00,VWS V14.01,2013-10-28 11:18:00,
2013-10-28 05:19:00,19.4,13.7,30.09,NW,322,0.0,0.0,78,0.00,,---,0.00,VWS V14.01,2013-10-28 11:19:00,
2013-10-28 05:20:00,19.4,13.7,30.09,NW,319,0.0,3.6,78,0.00,,---,0.00,VWS V14.01,2013-10-28 11:20:00,
2013-10-28 05:23:00,19.4,13.7,30.09,NW,317,0.0,0.0,78,0.00,,---,0.00,VWS V14.01,2013-10-28 11:23:00,
2013-10-28 05:24:00,19.4,13.7,30.09,NW,317,2.2,2.2,78,0.00,,---,0.00,VWS V14.01,2013-10-28 11:24:00,
2013-10-28 05:25:00,19.4,13.7,30.09,North,357,2.7,4.0,78,0.00,,---,0.00,VWS V14.01,2013-10-28 11:25:00,
2013-10-28 05:28:00,19.4,13.7,30.09,North,0,2.7,2.7,78,0.00,,---,0.00,VWS V14.01,2013-10-28 11:28:00,
2013-10-28 05:29:00,19.4,13.7,30.09,North,0,0.0,2.2,78,0.00,,---,0.00,VWS V14.01,2013-10-28 11:29:00,
2013-10-28 05:30:00,19.4,13.7,30.06,NNW,340,0.0,0.0,78,0.00,,---,0.00,VWS V14.01,2013-10-28 11:30:00,
2013-10-28 05:33:00,19.4,13.7,30.06,NNW,340,0.0,0.0,78,0.00,,---,0.00,VWS V14.01,2013-10-28 11:33:00,
2013-10-28 05:34:00,19.2,13.5,30.06,NNW,340,0.0,0.0,78,0.00,,---,0.00,VWS V14.01,2013-10-28 11:34:00,
2013-10-28 05:35:00,19.2,13.5,30.06,NNW,341,0.0,0.0,78,0.00,,---,0.00,VWS V14.01,2013-10-28 11:35:00,
2013-10-28 05:38:00,19.2,13.5,30.06,NNW,331,2.2,2.2,78,0.00,,---,0.00,VWS V14.01,2013-10-28 11:38:00,
2013-10-28 05:39:00,19.2,13.5,30.06,NNW,331,0.0,2.2,78,0.00,,---,0.00,VWS V14.01,2013-10-28 11:39:00,
2013-10-28 05:40:00,19.2,13.5,30.06,NNW,331,2.2,2.2,78,0.00,,---,0.00,VWS V14.01,2013-10-28 11:40:00,
2013-10-28 05:44:00,19.2,13.5,30.06,NNW,331,0.0,0.0,78,0.00,,---,0.00,VWS V14.01,2013-10-28 11:44:00,
2013-10-28 05:45:00,19.2,13.5,30.06,NNW,331,0.0,0.0,78,0.00,,---,0.00,VWS V14.01,2013-10-28 11:45:00,
2013-10-28 05:46:00,19.2,13.5,30.06,NNW,332,0.0,0.0,78,0.00,,---,0.00,VWS V14.01,2013-10-28 11:46:00,
2013-10-28 05:49:00,19.2,13.5,30.06,NNW,338,2.2,2.2,78,0.00,,---,0.00,VWS V14.01,2013-10-28 11:49:00,
2013-10-28 05:50:00,19.2,13.5,30.06,NNW,346,4.9,5.8,78,0.00,,---,0.00,VWS V14.01,2013-10-28 11:50:00,
2013-10-28 05:51:00,19.2,13.5,30.06,North,3,4.0,5.4,78,0.00,,---,0.00,VWS V14.01,2013-10-28 11:51:00,
2013-10-28 05:54:00,19.2,13.2,30.06,North,2,6.3,6.3,77,0.00,,---,0.00,VWS V14.01,2013-10-28 11:54:00,
2013-10-28 05:55:00,19.2,13.2,30.06,North,0,4.0,4.0,77,0.00,,---,0.00,VWS V14.01,2013-10-28 11:55:00,
2013-10-28 05:56:00,19.2,13.2,30.06,North,0,3.1,3.1,77,0.00,,---,0.00,VWS V14.01,2013-10-28 11:56:00,
2013-10-28 05:59:00,19.2,13.2,30.06,North,0,3.1,5.4,77,0.00,,---,0.00,VWS V14.01,2013-10-28 11:59:00,
2013-10-28 06:00:00,19.2,13.2,30.06,NNW,348,3.1,3.6,77,0.00,,---,0.00,VWS V14.01,2013-10-28 12:00:00,
2013-10-28 06:01:00,19.0,13.0,30.06,NNW,348,2.2,2.2,77,0.00,,---,0.00,VWS V14.01,2013-10-28 12:01:00,
2013-10-28 06:04:00,19.0,13.0,30.06,North,353,2.7,2.7,77,0.00,,---,0.00,VWS V14.01,2013-10-28 12:04:00,
2013-10-28 06:05:00,19.0,13.0,30.06,NNW,346,3.1,3.6,77,0.00,,---,0.00,VWS V14.01,2013-10-28 12:05:00,
2013-10-28 06:06:00,19.0,13.0,30.06,NNW,338,2.7,3.1,77,0.00,,---,0.00,VWS V14.01,2013-10-28 12:06:00,
2013-10-28 06:09:00,19.0,13.0,30.06,North,0,3.1,3.1,77,0.00,,---,0.00,VWS V14.01,2013-10-28 12:09:00,
2013-10-28 06:10:00,19.0,13.0,30.06,North,353,0.0,2.2,77,0.00,,---,0.00,VWS V14.01,2013-10-28 12:10:00,
2013-10-28 06:11:00,19.0,13.0,30.06,North,353,2.7,3.1,77,0.00,,---,0.00,VWS V14.01,2013-10-28 12:11:00,
2013-10-28 06:12:00,19.0,13.0,30.06,NNW,346,3.1,3.1,77,0.00,,---,0.00,VWS V14.01,2013-10-28 12:12:00,
2013-10-28 06:14:00,19.0,13.0,30.06,North,0,3.6,3.6,77,0.00,,---,0.00,VWS V14.01,2013-10-28 12:14:00,
2013-10-28 06:15:00,19.0,13.0,30.06,NNE,15,3.6,3.6,77,0.00,,,0.00,VWS V15.00,2013-10-28 12:15:00,
2013-10-28 06:16:00,19.0,13.0,30.06,North,0,3.1,3.1,77,0.00,,---,0.00,VWS V14.01,2013-10-28 12:16:00,
2013-10-28 06:17:00,19.0,13.0,30.06,North,357,4.9,4.9,77,0.00,,---,0.00,VWS V14.01,2013-10-28 12:17:00,
2013-10-28 06:20:00,19.0,13.0,30.06,North,9,2.2,2.7,77,0.00,,---,0.00,VWS V14.01,2013-10-28 12:20:00,
2013-10-28 06:21:00,19.0,13.0,30.06,North,9,3.1,3.1,77,0.00,,---,0.00,VWS V14.01,2013-10-28 12:21:00,
2013-10-28 06:22:00,19.0,13.0,30.06,North,9,2.7,3.6,77,0.00,,---,0.00,VWS V14.01,2013-10-28 12:22:00,
2013-10-28 06:24:00,19.0,13.0,30.06,North,350,3.1,3.1,77,0.00,,---,0.00,VWS V14.01,2013-10-28 12:24:00,
2013-10-28 06:26:00,19.0,13.0,30.06,NNW,331,4.0,4.0,77,0.00,,---,0.00,VWS V14.01,2013-10-28 12:26:00,
2013-10-28 06:27:00,19.0,13.0,30.06,NNW,344,3.1,3.6,77,0.00,,---,0.00,VWS V14.01,2013-10-28 12:27:00,
2013-10-28 06:30:00,19.0,13.0,30.06,North,353,3.6,3.6,77,0.00,,---,0.00,VWS V14.01,2013-10-28 12:30:00,
2013-10-28 06:31:00,19.0,13.0,30.06,NNW,346,3.6,4.0,77,0.00,,---,0.00,VWS V14.01,2013-10-28 12:31:00,
2013-10-28 06:32:00,19.0,13.0,30.06,NNW,345,2.2,2.7,77,0.00,,---,0.00,VWS V14.01,2013-10-28 12:32:00,
2013-10-28 06:35:00,19.0,13.0,30.06,NNW,346,3.6,3.6,77,0.00,,---,0.00,VWS V14.01,2013-10-28 12:35:00,
2013-10-28 06:36:00,18.9,12.9,30.06,North,0,0.0,0.0,77,0.00,,---,0.00,VWS V14.01,2013-10-28 12:36:00,
2013-10-28 06:37:00,18.9,12.9,30.06,North,357,2.7,3.6,77,0.00,,---,0.00,VWS V14.01,2013-10-28 12:37:00,
2013-10-28 06:40:00,18.9,12.9,30.06,North,353,2.7,2.7,77,0.00,,---,0.00,VWS V14.01,2013-10-28 12:40:00,
2013-10-28 06:41:00,18.9,12.9,30.06,North,0,3.6,4.0,77,0.00,,---,0.00,VWS V14.01,2013-10-28 12:41:00,
2013-10-28 06:42:00,18.9,12.9,30.06,NNW,344,2.2,2.2,77,0.00,,---,0.00,VWS V14.01,2013-10-28 12:42:00,
2013-10-28 06:43:00,18.9,12.9,30.06,North,353,2.2,2.2,77,0.00,,---,0.00,VWS V14.01,2013-10-28 12:43:00,
2013-10-28 06:45:00,18.9,12.9,30.06,North,353,2.7,2.7,77,0.00,,---,0.00,VWS V14.01,2013-10-28 12:45:00,
2013-10-28 06:46:00,18.7,12.7,30.06,North,353,2.7,3.1,77,0.00,,---,0.00,VWS V14.01,2013-10-28 12:46:00,
2013-10-28 06:47:00,18.7,12.7,30.06,North,350,2.7,2.7,77,0.00,,---,0.00,VWS V14.01,2013-10-28 12:47:00,
2013-10-28 06:49:00,18.7,12.7,30.06,North,353,0.0,2.2,77,0.00,,---,0.00,VWS V14.01,2013-10-28 12:49:00,
2013-10-28 06:50:00,18.7,12.7,30.06,North,353,0.0,0.0,77,0.00,,---,0.00,VWS V14.01,2013-10-28 12:50:00,
2013-10-28 06:51:00,18.7,12.7,30.06,North,350,0.0,0.0,77,0.00,,---,0.00,VWS V14.01,2013-10-28 12:51:00,
2013-10-28 06:52:00,18.7,12.7,30.06,North,350,0.0,0.0,77,0.00,,---,0.00,VWS V14.01,2013-10-28 12:52:00,
2013-10-28 06:54:00,18.7,12.7,30.06,North,353,0.0,0.0,77,0.00,,---,0.00,VWS V14.01,2013-10-28 12:54:00,
2013-10-28 06:55:00,18.7,12.7,30.06,North,353,0.0,0.0,77,0.00,,---,0.00,VWS V14.01,2013-10-28 12:55:00,
2013-10-28 06:56:00,18.7,12.7,30.06,North,353,0.0,0.0,77,0.00,,---,0.00,VWS V14.01,2013-10-28 12:56:00,
2013-10-28 06:57:00,18.7,12.7,30.06,North,353,0.0,0.0,77,0.00,,---,0.00,VWS V14.01,2013-10-28 12:57:00,
2013-10-28 06:59:00,18.7,12.7,30.06,North,353,0.0,0.0,77,0.00,,---,0.00,VWS V14.01,2013-10-28 12:59:00,
2013-10-28 07:00:00,18.7,12.7,30.06,North,353,0.0,0.0,77,0.00,,---,0.00,VWS V14.01,2013-10-28 13:00:00,
2013-10-28 07:01:00,18.7,12.7,30.06,North,353,0.0,0.0,77,0.00,,---,0.00,VWS V14.01,2013-10-28 13:01:00,
2013-10-28 07:02:00,18.7,12.7,30.06,North,357,4.0,4.0,77,0.00,,---,0.00,VWS V14.01,2013-10-28 13:02:00,
2013-10-28 07:05:00,18.7,12.7,30.06,North,353,0.0,0.0,77,0.00,,---,0.00,VWS V14.01,2013-10-28 13:05:00,
2013-10-28 07:07:00,18.5,12.5,30.06,North,353,0.0,0.0,77,0.00,,---,0.00,VWS V14.01,2013-10-28 13:07:00,
2013-10-28 07:08:00,18.5,12.5,30.06,North,0,2.7,4.0,77,0.00,,---,0.00,VWS V14.01,2013-10-28 13:08:00,
2013-10-28 07:10:00,18.5,12.2,30.06,North,0,2.7,2.7,76,0.00,,---,0.00,VWS V14.01,2013-10-28 13:10:00,
2013-10-28 07:12:00,18.5,12.2,30.06,North,0,2.7,2.7,76,0.00,,---,0.00,VWS V14.01,2013-10-28 13:12:00,
2013-10-28 07:13:00,18.5,12.2,30.06,North,0,0.0,2.2,76,0.00,,---,0.00,VWS V14.01,2013-10-28 13:13:00,
2013-10-28 07:15:00,18.5,12.2,30.06,North,0,2.7,4.0,76,0.00,,---,0.00,VWS V14.01,2013-10-28 13:15:00,
2013-10-28 07:17:00,18.3,12.0,30.06,North,357,2.7,2.7,76,0.00,,---,0.00,VWS V14.01,2013-10-28 13:17:00,
2013-10-28 07:18:00,18.3,12.0,30.06,North,0,3.1,3.1,76,0.00,,---,0.00,VWS V14.01,2013-10-28 13:18:00,
2013-10-28 07:20:00,18.3,12.0,30.06,North,0,0.0,2.2,76,0.00,,---,0.00,VWS V14.01,2013-10-28 13:20:00,
2013-10-28 07:21:00,18.3,12.0,30.06,North,0,0.0,0.0,76,0.00,,---,0.00,VWS V14.01,2013-10-28 13:21:00,
2013-10-28 07:22:00,18.3,12.0,30.06,North,0,0.0,2.2,76,0.00,,---,0.00,VWS V14.01,2013-10-28 13:22:00,
2013-10-28 07:23:00,18.3,12.0,30.06,North,0,2.2,2.2,76,0.00,,---,0.00,VWS V14.01,2013-10-28 13:23:00,
2013-10-28 07:26:00,18.3,12.0,30.06,North,0,0.0,0.0,76,0.00,,---,0.00,VWS V14.01,2013-10-28 13:26:00,
2013-10-28 07:28:00,18.3,12.0,30.06,North,357,2.7,3.6,76,0.00,,---,0.00,VWS V14.01,2013-10-28 13:28:00,
2013-10-28 07:30:00,18.3,12.0,30.06,North,353,0.0,0.0,76,0.00,,,0.00,VWS V15.00,2013-10-28 13:30:00,
2013-10-28 07:31:00,18.3,12.0,30.06,North,353,0.0,0.0,76,0.00,,---,0.00,VWS V14.01,2013-10-28 13:31:00,
2013-10-28 07:33:00,18.3,12.0,30.06,North,357,2.7,4.0,76,0.00,,---,0.00,VWS V14.01,2013-10-28 13:33:00,
2013-10-28 07:36:00,18.1,11.9,30.06,North,353,3.6,4.0,76,0.00,,---,0.00,VWS V14.01,2013-10-28 13:36:00,
2013-10-28 07:38:00,18.1,11.9,30.06,North,353,0.0,0.0,76,0.00,,---,0.00,VWS V14.01,2013-10-28 13:38:00,
2013-10-28 07:39:00,18.1,11.9,30.06,North,353,0.0,0.0,76,0.00,,---,0.00,VWS V14.01,2013-10-28 13:39:00,
2013-10-28 07:41:00,18.1,11.9,30.06,North,350,0.0,0.0,76,0.00,,---,0.00,VWS V14.01,2013-10-28 13:41:00,
2013-10-28 07:42:00,18.1,11.9,30.06,North,353,0.0,0.0,76,0.00,,---,0.00,VWS V14.01,2013-10-28 13:42:00,
2013-10-28 07:43:00,18.1,11.9,30.06,North,353,0.0,0.0,76,0.00,,---,0.00,VWS V14.01,2013-10-28 13:43:00,
2013-10-28 07:44:00,18.1,11.9,30.06,North,353,0.0,0.0,76,0.00,,---,0.00,VWS V14.01,2013-10-28 13:44:00,
2013-10-28 07:45:00,18.1,11.9,30.06,North,353,0.0,0.0,76,0.00,,,0.00,VWS V15.00,2013-10-28 13:45:00,
2013-10-28 07:46:00,18.1,11.9,30.06,North,357,0.0,0.0,76,0.00,,---,0.00,VWS V14.01,2013-10-28 13:46:00,
2013-10-28 07:47:00,18.1,11.9,30.06,North,357,2.7,2.7,76,0.00,,---,0.00,VWS V14.01,2013-10-28 13:47:00,
2013-10-28 07:48:00,18.1,11.9,30.06,North,0,3.6,3.6,76,0.00,,---,0.00,VWS V14.01,2013-10-28 13:48:00,
2013-10-28 07:49:00,18.1,11.9,30.06,North,0,4.0,4.0,76,0.00,,---,0.00,VWS V14.01,2013-10-28 13:49:00,
2013-10-28 07:50:00,18.1,11.9,30.06,North,0,3.1,3.1,76,0.00,,---,0.00,VWS V14.01,2013-10-28 13:50:00,
2013-10-28 07:52:00,18.1,11.9,30.06,North,0,2.2,3.1,76,0.00,,---,0.00,VWS V14.01,2013-10-28 13:52:00,
2013-10-28 07:53:00,18.1,11.9,30.06,North,0,0.0,0.0,76,0.00,,---,0.00,VWS V14.01,2013-10-28 13:53:00,
2013-10-28 07:54:00,18.1,11.9,30.06,North,0,2.2,2.2,76,0.00,,---,0.00,VWS V14.01,2013-10-28 13:54:00,
2013-10-28 07:55:00,18.1,11.9,30.06,North,0,0.0,0.0,76,0.00,,---,0.00,VWS V14.01,2013-10-28 13:55:00,
2013-10-28 07:57:00,18.1,11.9,30.06,North,0,0.0,0.0,76,0.00,,---,0.00,VWS V14.01,2013-10-28 13:57:00,
2013-10-28 07:58:00,18.1,11.9,30.06,North,357,0.0,0.0,76,0.00,,---,0.00,VWS V14.01,2013-10-28 13:58:00,
2013-10-28 07:59:00,18.1,11.9,30.06,North,357,3.1,3.6,76,0.00,,---,0.00,VWS V14.01,2013-10-28 13:59:00,
2013-10-28 08:00:00,18.1,11.9,30.06,North,357,3.1,3.1,76,0.00,,---,0.00,VWS V14.01,2013-10-28 14:00:00,
2013-10-28 08:02:00,18.1,11.9,30.06,North,357,0.0,3.1,76,0.00,,---,0.00,VWS V14.01,2013-10-28 14:02:00,
2013-10-28 08:03:00,18.1,11.9,30.06,North,357,2.2,2.2,76,0.00,,---,0.00,VWS V14.01,2013-10-28 14:03:00,
2013-10-28 08:04:00,18.1,11.9,30.06,North,357,0.0,0.0,76,0.00,,---,0.00,VWS V14.01,2013-10-28 14:04:00,
2013-10-28 08:05:00,18.1,11.9,30.06,North,357,0.0,0.0,76,0.00,,---,0.00,VWS V14.01,2013-10-28 14:05:00,
2013-10-28 08:07:00,18.1,11.9,30.06,North,357,0.0,0.0,76,0.00,,---,0.00,VWS V14.01,2013-10-28 14:07:00,
2013-10-28 08:08:00,18.1,11.9,30.06,North,357,0.0,0.0,76,0.00,,---,0.00,VWS V14.01,2013-10-28 14:08:00,
2013-10-28 08:09:00,18.1,11.9,30.06,North,357,0.0,0.0,76,0.00,,---,0.00,VWS V14.01,2013-10-28 14:09:00,
2013-10-28 08:11:00,18.1,11.9,30.06,North,0,4.0,4.0,76,0.00,,---,0.00,VWS V14.01,2013-10-28 14:11:00,
2013-10-28 08:12:00,18.0,11.7,30.06,NNW,335,3.6,3.6,76,0.00,,---,0.00,VWS V14.01,2013-10-28 14:12:00,
2013-10-28 08:13:00,18.0,11.7,30.06,NNW,338,0.0,2.7,76,0.00,,---,0.00,VWS V14.01,2013-10-28 14:13:00,
2013-10-28 08:14:00,18.0,11.7,30.06,NNW,338,0.0,0.0,76,0.00,,---,0.00,VWS V14.01,2013-10-28 14:14:00,
2013-10-28 08:15:00,18.0,11.7,30.06,NNW,338,0.0,0.0,76,0.00,,---,0.00,VWS V14.01,2013-10-28 14:15:00,
2013-10-28 08:16:00,18.0,11.7,30.06,North,0,2.7,3.1,76,0.00,,---,0.00,VWS V14.01,2013-10-28 14:16:00,
2013-10-28 08:17:00,18.0,11.7,30.06,North,357,2.7,3.1,76,0.00,,---,0.00,VWS V14.01,2013-10-28 14:17:00,
2013-10-28 08:18:00,18.0,11.7,30.06,North,353,3.6,3.6,76,0.00,,---,0.00,VWS V14.01,2013-10-28 14:18:00,
2013-10-28 08:19:00,18.0,11.7,30.06,North,353,2.7,3.6,76,0.00,,---,0.00,VWS V14.01,2013-10-28 14:19:00,
2013-10-28 08:20:00,18.0,11.7,30.06,NNW,345,2.7,2.7,76,0.00,,---,0.00,VWS V14.01,2013-10-28 14:20:00,
2013-10-28 08:21:00,18.0,11.7,30.06,North,357,4.0,4.0,76,0.00,,---,0.00,VWS V14.01,2013-10-28 14:21:00,
2013-10-28 08:23:00,18.0,11.7,30.06,North,353,2.2,2.7,76,0.00,,---,0.00,VWS V14.01,2013-10-28 14:23:00,
2013-10-28 08:24:00,18.0,11.7,30.06,North,353,2.2,2.7,76,0.00,,---,0.00,VWS V14.01,2013-10-28 14:24:00,
2013-10-28 08:25:00,17.8,11.5,30.06,NNW,346,3.6,3.6,76,0.00,,---,0.00,VWS V14.01,2013-10-28 14:25:00,
2013-10-28 08:26:00,17.8,11.5,30.06,North,1,4.0,4.0,76,0.00,,---,0.00,VWS V14.01,2013-10-28 14:26:00,
2013-10-28 08:28:00,17.8,11.5,30.06,North,357,2.7,2.7,76,0.00,,---,0.00,VWS V14.01,2013-10-28 14:28:00,
2013-10-28 08:29:00,17.8,11.5,30.06,NNW,348,2.7,3.6,76,0.00,,---,0.00,VWS V14.01,2013-10-28 14:29:00,
2013-10-28 08:30:00,17.8,11.5,30.06,NNW,344,3.6,3.6,76,0.00,,---,0.00,VWS V14.01,2013-10-28 14:30:00,
2013-10-28 08:31:00,17.8,11.5,30.06,North,353,2.2,4.0,76,0.00,,---,0.00,VWS V14.01,2013-10-28 14:31:00,
2013-10-28 08:33:00,17.8,11.5,30.06,North,353,0.0,0.0,76,0.00,,---,0.00,VWS V14.01,2013-10-28 14:33:00,
2013-10-28 08:34:00,17.8,11.5,30.06,North,353,0.0,0.0,76,0.00,,---,0.00,VWS V14.01,2013-10-28 14:34:00,
2013-10-28 08:35:00,17.8,11.5,30.06,North,353,0.0,0.0,76,0.00,,---,0.00,VWS V14.01,2013-10-28 14:35:00,
2013-10-28 08:37:00,17.8,11.5,30.06,NNW,346,0.0,0.0,76,0.00,,---,0.00,VWS V14.01,2013-10-28 14:37:00,
2013-10-28 08:38:00,17.8,11.5,30.06,North,349,0.0,0.0,76,0.00,,---,0.00,VWS V14.01,2013-10-28 14:38:00,
2013-10-28 08:39:00,17.8,11.5,30.06,NNW,338,0.0,0.0,76,0.00,,---,0.00,VWS V14.01,2013-10-28 14:39:00,
2013-10-28 08:40:00,17.8,11.5,30.06,NNW,334,0.0,0.0,76,0.00,,---,0.00,VWS V14.01,2013-10-28 14:40:00,
2013-10-28 08:42:00,18.0,11.7,30.06,NNW,334,2.2,2.7,76,0.00,,---,0.00,VWS V14.01,2013-10-28 14:42:00,
2013-10-28 08:43:00,18.0,11.7,30.06,NNW,339,3.6,3.6,76,0.00,,---,0.00,VWS V14.01,2013-10-28 14:43:00,
2013-10-28 08:44:00,18.0,11.7,30.06,NNW,339,0.0,0.0,76,0.00,,---,0.00,VWS V14.01,2013-10-28 14:44:00,
2013-10-28 08:45:00,17.8,11.5,30.06,NNW,339,0.0,0.0,76,0.00,,---,0.00,VWS V14.01,2013-10-28 14:45:00,
2013-10-28 08:46:00,17.8,11.5,30.06,North,357,3.1,3.6,76,0.00,,---,0.00,VWS V14.01,2013-10-28 14:46:00,
2013-10-28 08:47:00,17.8,11.2,30.06,North,353,2.7,2.7,75,0.00,,---,0.00,VWS V14.01,2013-10-28 14:47:00,
2013-10-28 08:49:00,17.8,11.2,30.06,NNW,338,0.0,3.1,75,0.00,,---,0.00,VWS V14.01,2013-10-28 14:49:00,
2013-10-28 08:50:00,17.8,11.2,30.06,NNW,338,2.7,2.7,75,0.00,,---,0.00,VWS V14.01,2013-10-28 14:50:00,
2013-10-28 08:51:00,17.8,11.2,30.06,NNW,338,0.0,0.0,75,0.00,,---,0.00,VWS V14.01,2013-10-28 14:51:00,
2013-10-28 08:53:00,17.8,11.2,30.06,NNW,338,2.7,2.7,75,0.00,,---,0.00,VWS V14.01,2013-10-28 14:53:00,
2013-10-28 08:54:00,17.8,11.2,30.06,NNW,336,2.2,3.1,75,0.00,,---,0.00,VWS V14.01,2013-10-28 14:54:00,
2013-10-28 08:55:00,17.8,11.2,30.06,NNW,337,0.0,2.7,75,0.00,,---,0.00,VWS V14.01,2013-10-28 14:55:00,
2013-10-28 08:56:00,17.8,11.2,30.06,NNW,337,0.0,0.0,75,0.00,,---,0.00,VWS V14.01,2013-10-28 14:56:00,
2013-10-28 08:58:00,17.8,11.2,30.06,NNW,337,0.0,0.0,75,0.00,,---,0.00,VWS V14.01,2013-10-28 14:58:00,
2013-10-28 08:59:00,17.8,11.2,30.06,NNW,337,0.0,0.0,75,0.00,,---,0.00,VWS V14.01,2013-10-28 14:59:00,
2013-10-28 09:00:00,18.0,11.4,30.06,NNW,343,3.1,3.1,75,0.00,,---,0.00,VWS V14.01,2013-10-28 15:00:00,
2013-10-28 09:01:00,18.0,11.4,30.06,NNW,343,0.0,0.0,75,0.00,,---,0.00,VWS V14.01,2013-10-28 15:01:00,
2013-10-28 09:02:00,18.0,11.4,30.06,NNW,343,0.0,0.0,75,0.00,,---,0.00,VWS V14.01,2013-10-28 15:02:00,
2013-10-28 09:03:00,18.0,11.4,30.06,NNW,343,0.0,0.0,75,0.00,,---,0.00,VWS V14.01,2013-10-28 15:03:00,
2013-10-28 09:04:00,18.0,11.4,30.06,NNW,344,0.0,0.0,75,0.00,,---,0.00,VWS V14.01,2013-10-28 15:04:00,
2013-10-28 09:05:00,18.0,11.4,30.06,NNW,344,0.0,0.0,75,0.00,,---,0.00,VWS V14.01,2013-10-28 15:05:00,
2013-10-28 09:06:00,18.0,11.4,30.06,NNW,344,0.0,0.0,75,0.00,,---,0.00,VWS V14.01,2013-10-28 15:06:00,
2013-10-28 09:07:00,18.0,11.4,30.06,NNW,344,0.0,0.0,75,0.00,,---,0.00,VWS V14.01,2013-10-28 15:07:00,
2013-10-28 09:08:00,18.0,11.4,30.06,NNW,348,0.0,0.0,75,0.00,,---,0.00,VWS V14.01,2013-10-28 15:08:00,
2013-10-28 09:09:00,18.0,11.4,30.06,North,0,0.0,0.0,75,0.00,,---,0.00,VWS V14.01,2013-10-28 15:09:00,
2013-10-28 09:10:00,18.0,11.4,30.06,North,0,0.0,0.0,75,0.00,,---,0.00,VWS V14.01,2013-10-28 15:10:00,
2013-10-28 09:11:00,17.8,11.2,30.06,North,0,0.0,2.7,75,0.00,,---,0.00,VWS V14.01,2013-10-28 15:11:00,
2013-10-28 09:12:00,17.8,11.2,30.06,North,353,3.1,3.1,75,0.00,,---,0.00,VWS V14.01,2013-10-28 15:12:00,
2013-10-28 09:13:00,17.8,11.2,30.06,North,357,3.1,3.1,75,0.00,,---,0.00,VWS V14.01,2013-10-28 15:13:00,
2013-10-28 09:14:00,17.8,11.2,30.06,North,357,2.2,2.7,75,0.00,,---,0.00,VWS V14.01,2013-10-28 15:14:00,
2013-10-28 09:15:00,17.8,11.2,30.06,North,357,2.2,2.7,75,0.00,,---,0.00,VWS V14.01,2013-10-28 15:15:00,
2013-10-28 09:16:00,17.8,11.2,30.06,North,357,0.0,0.0,75,0.00,,---,0.00,VWS V14.01,2013-10-28 15:16:00,
2013-10-28 09:17:00,17.8,11.2,30.06,North,357,0.0,0.0,75,0.00,,---,0.00,VWS V14.01,2013-10-28 15:17:00,
2013-10-28 09:18:00,17.8,11.2,30.06,North,357,0.0,0.0,75,0.00,,---,0.00,VWS V14.01,2013-10-28 15:18:00,
2013-10-28 09:20:00,17.8,11.2,30.06,North,0,0.0,0.0,75,0.00,,---,0.00,VWS V14.01,2013-10-28 15:20:00,
2013-10-28 09:21:00,18.0,11.4,30.06,North,0,0.0,0.0,75,0.00,,---,0.00,VWS V14.01,2013-10-28 15:21:00,
2013-10-28 09:23:00,18.0,11.4,30.06,North,353,2.7,2.7,75,0.00,,---,0.00,VWS V14.01,2013-10-28 15:23:00,
2013-10-28 09:24:00,18.0,11.4,30.06,North,353,0.0,0.0,75,0.00,,---,0.00,VWS V14.01,2013-10-28 15:24:00,
2013-10-28 09:25:00,18.0,11.4,30.06,North,353,0.0,0.0,75,0.00,,---,0.00,VWS V14.01,2013-10-28 15:25:00,
2013-10-28 09:26:00,18.0,11.4,30.06,North,10,3.6,4.0,75,0.00,,---,0.00,VWS V14.01,2013-10-28 15:26:00,
2013-10-28 09:28:00,17.8,10.9,30.06,NNW,346,3.6,5.4,74,0.00,,---,0.00,VWS V14.01,2013-10-28 15:28:00,
2013-10-28 09:29:00,17.8,10.9,30.06,NNW,346,0.0,2.7,74,0.00,,---,0.00,VWS V14.01,2013-10-28 15:29:00,
2013-10-28 09:30:00,17.8,10.9,30.06,NNW,346,2.7,2.7,74,0.00,,---,0.00,VWS V14.01,2013-10-28 15:30:00,
2013-10-28 09:31:00,17.8,10.9,30.06,NNW,346,2.2,2.2,74,0.00,,---,0.00,VWS V14.01,2013-10-28 15:31:00,
2013-10-28 09:32:00,17.8,10.9,30.06,North,0,4.5,4.5,74,0.00,,---,0.00,VWS V14.01,2013-10-28 15:32:00,
2013-10-28 09:33:00,17.8,10.9,30.06,North,353,3.1,3.1,74,0.00,,---,0.00,VWS V14.01,2013-10-28 15:33:00,
2013-10-28 09:34:00,17.8,10.9,30.06,North,353,2.2,2.2,74,0.00,,---,0.00,VWS V14.01,2013-10-28 15:34:00,
2013-10-28 09:35:00,17.8,10.9,30.06,North,0,2.7,2.7,74,0.00,,---,0.00,VWS V14.01,2013-10-28 15:35:00,
2013-10-28 09:36:00,17.8,10.9,30.06,North,0,2.7,2.7,74,0.00,,---,0.00,VWS V14.01,2013-10-28 15:36:00,
2013-10-28 09:37:00,17.8,10.9,30.06,North,0,2.7,2.7,74,0.00,,---,0.00,VWS V14.01,2013-10-28 15:37:00,
2013-10-28 09:38:00,17.8,10.9,30.06,North,353,3.1,3.6,74,0.00,,---,0.00,VWS V14.01,2013-10-28 15:38:00,
2013-10-28 09:40:00,17.8,10.9,30.06,North,357,4.0,4.0,74,0.00,,---,0.00,VWS V14.01,2013-10-28 15:40:00,
2013-10-28 09:41:00,17.8,10.9,30.06,North,357,2.7,3.6,74,0.00,,---,0.00,VWS V14.01,2013-10-28 15:41:00,
2013-10-28 09:42:00,17.8,10.9,30.06,North,357,0.0,0.0,74,0.00,,---,0.00,VWS V14.01,2013-10-28 15:42:00,
2013-10-28 09:43:00,17.8,10.9,30.06,North,0,3.1,3.1,74,0.00,,---,0.00,VWS V14.01,2013-10-28 15:43:00,
2013-10-28 09:45:00,17.8,10.9,30.06,North,0,0.0,0.0,74,0.00,,,0.00,VWS V15.00,2013-10-28 15:45:00,
2013-10-28 09:46:00,17.8,10.9,30.06,North,357,3.1,3.1,74,0.00,,---,0.00,VWS V14.01,2013-10-28 15:46:00,
2013-10-28 09:47:00,17.8,10.9,30.06,North,0,0.0,2.7,74,0.00,,---,0.00,VWS V14.01,2013-10-28 15:47:00,
2013-10-28 09:48:00,17.8,10.9,30.06,North,1,2.7,2.7,74,0.00,,---,0.00,VWS V14.01,2013-10-28 15:48:00,
2013-10-28 09:51:00,18.0,11.1,30.06,NNW,341,0.0,2.7,74,0.00,,---,0.00,VWS V14.01,2013-10-28 15:51:00,
2013-10-28 09:52:00,18.0,11.1,30.06,North,353,2.7,3.6,74,0.00,,---,0.00,VWS V14.01,2013-10-28 15:52:00,
2013-10-28 09:53:00,18.0,11.1,30.06,North,0,3.1,3.6,74,0.00,,---,0.00,VWS V14.01,2013-10-28 15:53:00,
2013-10-28 09:56:00,17.8,10.6,30.06,North,0,3.6,3.6,73,0.00,,---,0.00,VWS V14.01,2013-10-28 15:56:00,
2013-10-28 09:57:00,17.8,10.6,30.06,North,353,3.1,3.6,73,0.00,,---,0.00,VWS V14.01,2013-10-28 15:57:00,
2013-10-28 09:58:00,17.8,10.6,30.06,NNW,346,3.1,3.1,73,0.00,,---,0.00,VWS V14.01,2013-10-28 15:58:00,
2013-10-28 10:00:00,17.8,10.6,30.06,NNW,346,0.0,2.2,73,0.00,,,0.00,VWS V15.00,2013-10-28 16:00:00,
2013-10-28 10:01:00,17.8,10.6,30.06,North,0,3.1,3.6,73,0.00,,---,0.00,VWS V14.01,2013-10-28 16:01:00,
2013-10-28 10:02:00,17.8,10.6,30.06,North,350,2.7,3.1,73,0.00,,---,0.00,VWS V14.01,2013-10-28 16:02:00,
2013-10-28 10:03:00,17.8,10.6,30.06,North,350,0.0,2.7,73,0.00,,---,0.00,VWS V14.01,2013-10-28 16:03:00,
2013-10-28 10:06:00,17.8,10.6,30.06,NNW,346,0.0,2.7,73,0.00,,---,0.00,VWS V14.01,2013-10-28 16:06:00,
2013-10-28 10:07:00,17.8,10.6,30.06,NNW,345,2.7,2.7,73,0.00,,---,0.00,VWS V14.01,2013-10-28 16:07:00,
2013-10-28 10:08:00,17.8,10.6,30.06,North,357,4.0,4.0,73,0.00,,---,0.00,VWS V14.01,2013-10-28 16:08:00,
2013-10-28 10:09:00,17.8,10.6,30.06,North,0,3.6,4.0,73,0.00,,---,0.00,VWS V14.01,2013-10-28 16:09:00,
2013-10-28 10:11:00,17.8,10.6,30.06,NNW,344,0.0,0.0,73,0.00,,---,0.00,VWS V14.01,2013-10-28 16:11:00,
2013-10-28 10:12:00,17.8,10.6,30.06,NNW,345,0.0,0.0,73,0.00,,---,0.00,VWS V14.01,2013-10-28 16:12:00,
2013-10-28 10:13:00,17.8,10.3,30.06,NNW,345,0.0,0.0,72,0.00,,---,0.00,VWS V14.01,2013-10-28 16:13:00,
2013-10-28 10:14:00,17.8,10.3,30.06,NNW,346,2.7,2.7,72,0.00,,---,0.00,VWS V14.01,2013-10-28 16:14:00,
2013-10-28 10:15:00,17.8,10.3,30.06,NNW,346,2.2,3.1,72,0.00,,,0.00,VWS V15.00,2013-10-28 16:15:00,
2013-10-28 10:16:00,17.8,10.3,30.09,NNW,346,0.0,0.0,72,0.00,,---,0.00,VWS V14.01,2013-10-28 16:16:00,
2013-10-28 10:17:00,17.8,10.3,30.09,NNW,346,0.0,0.0,72,0.00,,---,0.00,VWS V14.01,2013-10-28 16:17:00,
2013-10-28 10:19:00,17.8,10.3,30.09,NNW,346,0.0,0.0,72,0.00,,---,0.00,VWS V14.01,2013-10-28 16:19:00,
2013-10-28 10:20:00,17.8,10.3,30.09,NNW,346,0.0,0.0,72,0.00,,---,0.00,VWS V14.01,2013-10-28 16:20:00,
2013-10-28 10:22:00,18.0,10.8,30.09,NNW,348,4.0,4.0,73,0.00,,---,0.00,VWS V14.01,2013-10-28 16:22:00,
2013-10-28 10:24:00,18.0,10.5,30.09,North,0,2.7,4.0,72,0.00,,---,0.00,VWS V14.01,2013-10-28 16:24:00,
2013-10-28 10:25:00,18.0,10.5,30.09,North,3,2.2,3.1,72,0.00,,---,0.00,VWS V14.01,2013-10-28 16:25:00,
2013-10-28 10:27:00,17.8,10.3,30.09,North,0,0.0,0.0,72,0.00,,---,0.00,VWS V14.01,2013-10-28 16:27:00,
2013-10-28 10:29:00,17.8,10.0,30.09,NNW,348,3.1,4.0,71,0.00,,---,0.00,VWS V14.01,2013-10-28 16:29:00,
2013-10-28 10:30:00,17.8,10.0,30.09,North,0,3.6,3.6,71,0.00,,---,0.00,VWS V14.01,2013-10-28 16:30:00,
2013-10-28 10:32:00,17.8,10.0,30.09,North,357,4.0,4.9,71,0.00,,---,0.00,VWS V14.01,2013-10-28 16:32:00,
2013-10-28 10:33:00,17.6,9.8,30.09,NNW,339,3.6,3.6,71,0.00,,---,0.00,VWS V14.01,2013-10-28 16:33:00,
2013-10-28 10:34:00,17.6,9.8,30.09,North,357,4.0,5.8,71,0.00,,---,0.00,VWS V14.01,2013-10-28 16:34:00,
2013-10-28 10:35:00,17.6,9.8,30.09,North,0,2.7,4.0,71,0.00,,---,0.00,VWS V14.01,2013-10-28 16:35:00,
2013-10-28 10:37:00,17.6,9.5,30.09,North,353,3.1,3.1,70,0.00,,---,0.00,VWS V14.01,2013-10-28 16:37:00,
2013-10-28 10:38:00,17.6,9.5,30.09,North,353,4.9,4.9,70,0.00,,---,0.00,VWS V14.01,2013-10-28 16:38:00,
2013-10-28 10:39:00,17.6,9.5,30.09,North,349,3.1,3.6,70,0.00,,---,0.00,VWS V14.01,2013-10-28 16:39:00,
2013-10-28 10:40:00,17.6,9.5,30.09,North,349,2.7,3.1,70,0.00,,---,0.00,VWS V14.01,2013-10-28 16:40:00,
2013-10-28 10:42:00,17.6,9.5,30.09,North,353,3.6,3.6,70,0.00,,---,0.00,VWS V14.01,2013-10-28 16:42:00,
2013-10-28 10:43:00,17.6,9.5,30.09,North,0,2.2,3.1,70,0.00,,---,0.00,VWS V14.01,2013-10-28 16:43:00,
2013-10-28 10:44:00,17.6,9.5,30.09,North,0,2.7,2.7,70,0.00,,---,0.00,VWS V14.01,2013-10-28 16:44:00,
2013-10-28 10:45:00,17.6,9.5,30.09,North,0,2.2,4.0,70,0.00,,---,0.00,VWS V14.01,2013-10-28 16:45:00,
2013-10-28 10:47:00,17.6,9.5,30.09,North,0,2.2,2.2,70,0.00,,---,0.00,VWS V14.01,2013-10-28 16:47:00,
2013-10-28 10:48:00,17.8,9.7,30.09,NNW,346,2.7,2.7,70,0.00,,---,0.00,VWS V14.01,2013-10-28 16:48:00,
2013-10-28 10:50:00,17.8,9.7,30.09,NNW,346,0.0,0.0,70,0.00,,---,0.00,VWS V14.01,2013-10-28 16:50:00,
2013-10-28 10:52:00,18.0,9.8,30.09,NNW,340,2.2,2.7,70,0.00,,---,0.00,VWS V14.01,2013-10-28 16:52:00,
2013-10-28 10:53:00,18.1,10.0,30.09,NNW,340,0.0,0.0,70,0.00,,---,0.00,VWS V14.01,2013-10-28 16:53:00,
2013-10-28 10:54:00,18.1,10.0,30.09,NNW,340,0.0,0.0,70,0.00,,---,0.00,VWS V14.01,2013-10-28 16:54:00,
2013-10-28 10:55:00,18.1,10.0,30.09,North,0,3.6,4.0,70,0.00,,---,0.00,VWS V14.01,2013-10-28 16:55:00,
2013-10-28 10:57:00,18.1,9.7,30.09,North,0,3.1,4.0,69,0.00,,---,0.00,VWS V14.01,2013-10-28 16:57:00,
2013-10-28 10:59:00,18.0,9.5,30.09,North,0,2.7,3.6,69,0.00,,---,0.00,VWS V14.01,2013-10-28 16:59:00,
2013-10-28 11:00:00,18.0,9.5,30.09,North,0,0.0,2.2,69,0.00,,---,0.00,VWS V14.01,2013-10-28 17:00:00,
2013-10-28 11:02:00,18.0,9.5,30.09,North,0,2.2,2.2,69,0.00,,---,0.00,VWS V14.01,2013-10-28 17:02:00,
2013-10-28 11:04:00,18.0,9.5,30.09,North,353,4.5,4.5,69,0.00,,---,0.00,VWS V14.01,2013-10-28 17:04:00,
2013-10-28 11:05:00,18.0,9.2,30.09,North,353,2.7,2.7,68,0.00,,---,0.00,VWS V14.01,2013-10-28 17:05:00,
2013-10-28 11:06:00,18.0,9.2,30.09,North,0,3.1,3.6,68,0.00,,---,0.00,VWS V14.01,2013-10-28 17:06:00,
2013-10-28 11:07:00,18.0,9.2,30.09,North,357,4.0,4.0,68,0.00,,---,0.00,VWS V14.01,2013-10-28 17:07:00,
2013-10-28 11:09:00,18.0,9.2,30.09,North,0,2.7,2.7,68,0.00,,---,0.00,VWS V14.01,2013-10-28 17:09:00,
2013-10-28 11:10:00,17.8,9.0,30.09,North,357,5.8,5.8,68,0.00,,---,0.00,VWS V14.01,2013-10-28 17:10:00,
2013-10-28 11:11:00,17.8,8.7,30.09,North,0,2.7,3.1,67,0.00,,---,0.00,VWS V14.01,2013-10-28 17:11:00,
2013-10-28 11:12:00,17.8,8.7,30.09,North,357,3.6,3.6,67,0.00,,---,0.00,VWS V14.01,2013-10-28 17:12:00,
2013-10-28 11:14:00,17.8,8.7,30.09,NNW,338,3.1,3.1,67,0.00,,---,0.00,VWS V14.01,2013-10-28 17:14:00,
2013-10-28 11:15:00,17.8,8.7,30.09,NNW,338,3.6,4.0,67,0.00,,---,0.00,VWS V14.01,2013-10-28 17:15:00,
2013-10-28 11:16:00,17.8,8.7,30.06,NNW,340,3.1,3.1,67,0.00,,---,0.00,VWS V14.01,2013-10-28 17:16:00,
2013-10-28 11:17:00,17.8,8.7,30.06,NNW,340,2.2,2.7,67,0.00,,---,0.00,VWS V14.01,2013-10-28 17:17:00,
2013-10-28 11:18:00,18.0,8.9,30.06,NNW,340,2.2,2.7,67,0.00,,---,0.00,VWS V14.01,2013-10-28 17:18:00,
2013-10-28 11:19:00,18.0,8.9,30.06,NNW,341,3.1,3.1,67,0.00,,---,0.00,VWS V14.01,2013-10-28 17:19:00,
2013-10-28 11:20:00,18.0,8.9,30.06,NNW,341,3.1,3.1,67,0.00,,---,0.00,VWS V14.01,2013-10-28 17:20:00,
2013-10-28 11:21:00,18.0,8.9,30.06,NNW,341,0.0,2.7,67,0.00,,---,0.00,VWS V14.01,2013-10-28 17:21:00,
2013-10-28 11:22:00,18.1,9.0,30.06,NNW,341,0.0,0.0,67,0.00,,---,0.00,VWS V14.01,2013-10-28 17:22:00,
2013-10-28 11:23:00,18.1,9.0,30.06,NNW,346,2.7,2.7,67,0.00,,---,0.00,VWS V14.01,2013-10-28 17:23:00,
2013-10-28 11:24:00,18.1,9.0,30.06,North,353,3.1,3.6,67,0.00,,---,0.00,VWS V14.01,2013-10-28 17:24:00,
2013-10-28 11:25:00,18.1,9.0,30.06,North,357,4.0,4.0,67,0.00,,---,0.00,VWS V14.01,2013-10-28 17:25:00,
2013-10-28 11:26:00,18.1,9.0,30.06,North,357,3.1,3.1,67,0.00,,---,0.00,VWS V14.01,2013-10-28 17:26:00,
2013-10-28 11:27:00,18.0,8.9,30.06,NNW,328,4.9,4.9,67,0.00,,---,0.00,VWS V14.01,2013-10-28 17:27:00,
2013-10-28 11:28:00,18.0,8.5,30.06,NNE,17,2.7,5.4,66,0.00,,---,0.00,VWS V14.01,2013-10-28 17:28:00,
2013-10-28 11:29:00,17.8,8.4,30.06,North,357,3.6,4.9,66,0.00,,---,0.00,VWS V14.01,2013-10-28 17:29:00,
2013-10-28 11:30:00,17.8,8.4,30.06,North,357,3.1,3.6,66,0.00,,---,0.00,VWS V14.01,2013-10-28 17:30:00,
2013-10-28 11:31:00,17.8,8.4,30.06,North,3,2.7,3.1,66,0.00,,---,0.00,VWS V14.01,2013-10-28 17:31:00,
2013-10-28 11:32:00,18.0,8.5,30.06,North,0,5.4,5.4,66,0.00,,---,0.00,VWS V14.01,2013-10-28 17:32:00,
2013-10-28 11:33:00,18.0,8.5,30.06,North,4,4.0,4.0,66,0.00,,---,0.00,VWS V14.01,2013-10-28 17:33:00,
2013-10-28 11:35:00,18.0,8.5,30.06,North,3,4.0,4.0,66,0.00,,---,0.00,VWS V14.01,2013-10-28 17:35:00,
2013-10-28 11:37:00,17.8,8.0,30.06,NNE,19,4.0,4.0,65,0.00,,---,0.00,VWS V14.01,2013-10-28 17:37:00,
2013-10-28 11:38:00,17.8,8.0,30.06,North,1,3.6,4.0,65,0.00,,---,0.00,VWS V14.01,2013-10-28 17:38:00,
2013-10-28 11:40:00,17.6,7.8,30.06,North,1,5.8,5.8,65,0.00,,---,0.00,VWS V14.01,2013-10-28 17:40:00,
2013-10-28 11:42:00,17.6,7.8,30.06,North,4,4.0,4.9,65,0.00,,---,0.00,VWS V14.01,2013-10-28 17:42:00,
2013-10-28 11:43:00,17.6,7.8,30.06,North,4,4.0,4.9,65,0.00,,---,0.00,VWS V14.01,2013-10-28 17:43:00,
2013-10-28 11:44:00,17.6,7.8,30.06,North,357,3.6,4.0,65,0.00,,---,0.00,VWS V14.01,2013-10-28 17:44:00,
2013-10-28 11:45:00,17.6,7.8,30.06,North,10,3.6,3.6,65,0.00,,---,0.00,VWS V14.01,2013-10-28 17:45:00,
2013-10-28 11:47:00,17.6,7.8,30.06,North,5,3.1,4.0,65,0.00,,---,0.00,VWS V14.01,2013-10-28 17:47:00,
2013-10-28 11:48:00,17.6,8.2,30.06,North,11,0.0,3.1,66,0.00,,---,0.00,VWS V14.01,2013-10-28 17:48:00,
2013-10-28 11:49:00,17.6,8.2,30.06,North,11,3.1,3.1,66,0.00,,---,0.00,VWS V14.01,2013-10-28 17:49:00,
2013-10-28 11:50:00,17.6,8.2,30.06,North,0,4.0,4.0,66,0.00,,---,0.00,VWS V14.01,2013-10-28 17:50:00,
2013-10-28 11:52:00,17.6,8.2,30.06,North,357,2.2,4.0,66,0.00,,---,0.00,VWS V14.01,2013-10-28 17:52:00,
2013-10-28 11:54:00,17.8,8.0,30.06,North,353,2.7,3.1,65,0.00,,---,0.00,VWS V14.01,2013-10-28 17:54:00,
2013-10-28 11:55:00,17.8,8.0,30.06,North,353,0.0,0.0,65,0.00,,---,0.00,VWS V14.01,2013-10-28 17:55:00,
2013-10-28 11:57:00,17.8,8.0,30.06,NNE,18,3.1,4.0,65,0.00,,---,0.00,VWS V14.01,2013-10-28 17:57:00,
2013-10-28 11:59:00,17.8,7.7,30.06,North,8,4.0,4.0,64,0.00,,---,0.00,VWS V14.01,2013-10-28 17:59:00,
2013-10-28 12:00:00,17.6,7.5,30.06,North,2,3.6,3.6,64,0.00,,---,0.00,VWS V14.01,2013-10-28 18:00:00,
2013-10-28 12:02:00,17.6,7.5,30.06,North,6,3.1,3.1,64,0.00,,---,0.00,VWS V14.01,2013-10-28 18:02:00,
2013-10-28 12:03:00,17.6,7.5,30.06,NNE,12,3.6,3.6,64,0.00,,---,0.00,VWS V14.01,2013-10-28 18:03:00,
2013-10-28 12:04:00,17.6,7.5,30.06,North,11,4.9,5.4,64,0.00,,---,0.00,VWS V14.01,2013-10-28 18:04:00,
2013-10-28 12:05:00,17.4,7.3,30.06,NNE,18,4.0,4.9,64,0.00,,---,0.00,VWS V14.01,2013-10-28 18:05:00,
2013-10-28 12:06:00,17.4,7.3,30.06,NNE,17,2.7,4.9,64,0.00,,---,0.00,VWS V14.01,2013-10-28 18:06:00,
2013-10-28 12:07:00,17.4,7.3,30.06,North,353,2.7,2.7,64,0.00,,---,0.00,VWS V14.01,2013-10-28 18:07:00,
2013-10-28 12:08:00,17.4,7.3,30.06,North,353,2.7,2.7,64,0.00,,---,0.00,VWS V14.01,2013-10-28 18:08:00,
2013-10-28 12:09:00,17.4,7.3,30.06,NNE,16,5.4,5.4,64,0.00,,---,0.00,VWS V14.01,2013-10-28 18:09:00,
2013-10-28 12:11:00,17.4,7.3,30.06,North,8,3.6,4.0,64,0.00,,---,0.00,VWS V14.01,2013-10-28 18:11:00,
2013-10-28 12:13:00,17.4,7.3,30.06,North,5,3.6,3.6,64,0.00,,---,0.00,VWS V14.01,2013-10-28 18:13:00,
2013-10-28 12:14:00,17.4,7.3,30.06,North,357,3.1,4.0,64,0.00,,---,0.00,VWS V14.01,2013-10-28 18:14:00,
2013-10-28 12:15:00,17.4,7.3,30.06,North,357,3.1,3.1,64,0.00,,,0.00,VWS V15.00,2013-10-28 18:15:00,
2013-10-28 12:16:00,17.4,7.3,30.06,North,357,3.6,4.0,64,0.00,,---,0.00,VWS V14.01,2013-10-28 18:16:00,
2013-10-28 12:18:00,17.4,7.7,30.06,North,350,2.7,2.7,65,0.00,,---,0.00,VWS V14.01,2013-10-28 18:18:00,
2013-10-28 12:19:00,17.4,7.7,30.06,North,350,3.1,3.1,65,0.00,,---,0.00,VWS V14.01,2013-10-28 18:19:00,
2013-10-28 12:21:00,17.4,7.7,30.06,North,350,2.2,2.7,65,0.00,,---,0.00,VWS V14.01,2013-10-28 18:21:00,
2013-10-28 12:22:00,17.4,7.7,30.06,North,353,2.7,3.6,65,0.00,,---,0.00,VWS V14.01,2013-10-28 18:22:00,
2013-10-28 12:23:00,17.6,7.8,30.06,North,0,2.7,2.7,65,0.00,,---,0.00,VWS V14.01,2013-10-28 18:23:00,
2013-10-28 12:24:00,17.6,7.8,30.06,NNW,333,3.1,3.1,65,0.00,,---,0.00,VWS V14.01,2013-10-28 18:24:00,
2013-10-28 12:25:00,17.6,7.8,30.06,NNW,333,3.1,3.1,65,0.00,,---,0.00,VWS V14.01,2013-10-28 18:25:00,
2013-10-28 12:26:00,17.6,7.8,30.06,NNW,330,2.7,3.6,65,0.00,,---,0.00,VWS V14.01,2013-10-28 18:26:00,
2013-10-28 12:27:00,17.6,7.8,30.06,NNW,330,3.1,3.1,65,0.00,,---,0.00,VWS V14.01,2013-10-28 18:27:00,
2013-10-28 12:28:00,17.6,7.8,30.06,North,1,2.2,4.9,65,0.00,,---,0.00,VWS V14.01,2013-10-28 18:28:00,
2013-10-28 12:29:00,17.6,7.8,30.06,NNW,327,2.7,3.1,65,0.00,,---,0.00,VWS V14.01,2013-10-28 18:29:00,
2013-10-28 12:30:00,17.6,7.8,30.06,NW,323,2.7,3.1,65,0.00,,---,0.00,VWS V14.01,2013-10-28 18:30:00,
2013-10-28 12:31:00,17.6,7.8,30.06,NW,314,3.1,3.6,65,0.00,,---,0.00,VWS V14.01,2013-10-28 18:31:00,
2013-10-28 12:33:00,17.8,7.7,30.06,NNW,343,3.1,3.6,64,0.00,,---,0.00,VWS V14.01,2013-10-28 18:33:00,
2013-10-28 12:34:00,17.8,7.7,30.06,NNW,334,3.1,3.1,64,0.00,,---,0.00,VWS V14.01,2013-10-28 18:34:00,
2013-10-28 12:35:00,17.8,7.7,30.06,NW,320,2.7,2.7,64,0.00,,---,0.00,VWS V14.01,2013-10-28 18:35:00,
2013-10-28 12:36:00,18.0,8.2,30.06,North,357,3.6,3.6,65,0.00,,---,0.00,VWS V14.01,2013-10-28 18:36:00,
2013-10-28 12:38:00,18.0,7.8,30.06,North,353,2.2,2.7,64,0.00,,---,0.00,VWS V14.01,2013-10-28 18:38:00,
2013-10-28 12:39:00,18.1,8.0,30.06,NNW,343,4.0,4.0,64,0.00,,---,0.00,VWS V14.01,2013-10-28 18:39:00,
2013-10-28 12:40:00,18.1,8.0,30.06,NNW,338,2.7,3.1,64,0.00,,---,0.00,VWS V14.01,2013-10-28 18:40:00,
2013-10-28 12:41:00,18.3,8.5,30.06,North,350,3.6,3.6,65,0.00,,---,0.00,VWS V14.01,2013-10-28 18:41:00,
2013-10-28 12:43:00,18.3,8.2,30.06,NW,318,4.0,4.0,64,0.00,,---,0.00,VWS V14.01,2013-10-28 18:43:00,
2013-10-28 12:44:00,18.5,8.4,30.06,NW,319,3.6,3.6,64,0.00,,---,0.00,VWS V14.01,2013-10-28 18:44:00,
2013-10-28 12:45:00,18.5,8.4,30.06,North,353,4.0,4.5,64,0.00,,---,0.00,VWS V14.01,2013-10-28 18:45:00,
2013-10-28 12:46:00,18.5,8.0,30.06,NNW,335,4.0,4.0,63,0.00,,---,0.00,VWS V14.01,2013-10-28 18:46:00,
2013-10-28 12:48:00,18.7,7.8,30.06,NW,320,2.7,2.7,62,0.00,,---,0.00,VWS V14.01,2013-10-28 18:48:00,
2013-10-28 12:49:00,18.7,7.8,30.06,NW,320,2.2,2.7,62,0.00,,---,0.00,VWS V14.01,2013-10-28 18:49:00,
2013-10-28 12:50:00,18.9,8.0,30.06,NW,320,2.7,2.7,62,0.00,,---,0.00,VWS V14.01,2013-10-28 18:50:00,
2013-10-28 12:51:00,19.0,8.2,30.06,NW,320,2.2,2.2,62,0.00,,---,0.00,VWS V14.01,2013-10-28 18:51:00,
2013-10-28 12:53:00,18.9,7.7,30.06,North,10,3.1,3.6,61,0.00,,---,0.00,VWS V14.01,2013-10-28 18:53:00,
2013-10-28 12:54:00,18.7,7.1,30.06,North,357,4.9,5.4,60,0.00,,---,0.00,VWS V14.01,2013-10-28 18:54:00,
2013-10-28 12:55:00,18.7,7.1,30.06,North,357,5.8,5.8,60,0.00,,---,0.00,VWS V14.01,2013-10-28 18:55:00,
2013-10-28 12:56:00,18.5,6.9,30.06,North,353,2.7,3.6,60,0.00,,---,0.00,VWS V14.01,2013-10-28 18:56:00,
2013-10-28 12:57:00,18.5,6.9,30.06,NNW,344,2.7,2.7,60,0.00,,---,0.00,VWS V14.01,2013-10-28 18:57:00,
2013-10-28 12:58:00,18.5,6.9,30.06,NW,319,4.0,4.0,60,0.00,,---,0.00,VWS V14.01,2013-10-28 18:58:00,
2013-10-28 12:59:00,18.5,6.9,30.06,NW,318,3.6,5.4,60,0.00,,---,0.00,VWS V14.01,2013-10-28 18:59:00,
2013-10-28 13:00:00,18.5,6.9,30.06,NNW,341,4.0,4.0,60,0.00,,---,0.00,VWS V14.01,2013-10-28 19:00:00,
2013-10-28 13:02:00,18.5,6.9,30.06,NW,308,4.0,5.4,60,0.00,,---,0.00,VWS V14.01,2013-10-28 19:02:00,
2013-10-28 13:04:00,18.5,6.6,30.06,NW,313,3.1,3.1,59,0.00,,---,0.00,VWS V14.01,2013-10-28 19:04:00,
2013-10-28 13:05:00,18.5,6.9,30.06,North,353,6.3,6.3,60,0.00,,---,0.00,VWS V14.01,2013-10-28 19:05:00,
2013-10-28 13:07:00,18.3,6.4,30.06,North,349,5.4,5.4,59,0.00,,---,0.00,VWS V14.01,2013-10-28 19:07:00,
2013-10-28 13:09:00,18.3,6.4,30.06,North,353,0.0,2.7,59,0.00,,---,0.00,VWS V14.01,2013-10-28 19:09:00,
2013-10-28 13:10:00,18.5,6.9,30.06,NW,325,3.1,3.1,60,0.00,,---,0.00,VWS V14.01,2013-10-28 19:10:00,
2013-10-28 13:12:00,18.7,7.1,30.06,NNW,328,2.7,3.6,60,0.00,,---,0.00,VWS V14.01,2013-10-28 19:12:00,
2013-10-28 13:14:00,18.7,6.7,30.06,North,353,5.4,6.3,59,0.00,,---,0.00,VWS V14.01,2013-10-28 19:14:00,
2013-10-28 13:15:00,18.7,6.7,30.03,NW,314,2.2,3.6,59,0.00,,---,0.00,VWS V14.01,2013-10-28 19:15:00,
2013-10-28 13:17:00,18.7,6.7,30.03,NW,326,2.7,2.7,59,0.00,,---,0.00,VWS V14.01,2013-10-28 19:17:00,
2013-10-28 13:18:00,18.7,6.7,30.03,NNW,327,3.1,3.6,59,0.00,,---,0.00,VWS V14.01,2013-10-28 19:18:00,
2013-10-28 13:19:00,19.0,7.1,30.03,NW,309,2.2,2.2,59,0.00,,---,0.00,VWS V14.01,2013-10-28 19:19:00,
2013-10-28 13:20:00,19.0,7.1,30.03,NW,313,3.1,3.1,59,0.00,,---,0.00,VWS V14.01,2013-10-28 19:20:00,
2013-10-28 13:22:00,19.0,7.1,30.03,NW,321,0.0,2.2,59,0.00,,---,0.00,VWS V14.01,2013-10-28 19:22:00,
2013-10-28 13:23:00,19.2,7.2,30.03,NW,315,2.2,2.7,59,0.00,,---,0.00,VWS V14.01,2013-10-28 19:23:00,
2013-10-28 13:25:00,19.4,7.4,30.03,NNW,341,3.1,3.1,59,0.00,,---,0.00,VWS V14.01,2013-10-28 19:25:00,
2013-10-28 13:26:00,19.4,7.4,30.03,NNW,338,2.2,3.6,59,0.00,,---,0.00,VWS V14.01,2013-10-28 19:26:00,
2013-10-28 13:27:00,19.6,7.2,30.03,NW,312,2.7,3.1,58,0.00,,---,0.00,VWS V14.01,2013-10-28 19:27:00,
2013-10-28 13:28:00,19.6,7.2,30.03,NW,313,3.1,3.1,58,0.00,,---,0.00,VWS V14.01,2013-10-28 19:28:00,
2013-10-28 13:30:00,19.6,7.2,30.03,NNW,348,5.8,5.8,58,0.00,,---,0.00,VWS V14.01,2013-10-28 19:30:00,
2013-10-28 13:31:00,19.6,6.8,30.03,NW,312,2.7,2.7,57,0.00,,---,0.00,VWS V14.01,2013-10-28 19:31:00,
2013-10-28 13:32:00,19.6,6.8,30.03,NNW,333,3.6,3.6,57,0.00,,---,0.00,VWS V14.01,2013-10-28 19:32:00,
2013-10-28 13:33:00,19.6,6.8,30.03,North,353,5.4,5.4,57,0.00,,---,0.00,VWS V14.01,2013-10-28 19:33:00,
2013-10-28 13:35:00,19.4,6.7,30.03,North,0,3.6,4.0,57,0.00,,---,0.00,VWS V14.01,2013-10-28 19:35:00,
2013-10-28 13:36:00,19.4,6.3,30.03,North,0,3.1,3.1,56,0.00,,---,0.00,VWS V14.01,2013-10-28 19:36:00,
2013-10-28 13:37:00,19.4,6.3,30.03,NNW,333,2.2,3.1,56,0.00,,---,0.00,VWS V14.01,2013-10-28 19:37:00,
2013-10-28 13:39:00,19.2,6.1,30.03,North,0,3.6,4.0,56,0.00,,---,0.00,VWS V14.01,2013-10-28 19:39:00,
2013-10-28 13:40:00,19.2,6.1,30.03,North,357,6.3,6.3,56,0.00,,---,0.00,VWS V14.01,2013-10-28 19:40:00,
2013-10-28 13:41:00,19.0,5.9,30.03,North,2,5.4,6.3,56,0.00,,---,0.00,VWS V14.01,2013-10-28 19:41:00,
2013-10-28 13:42:00,18.9,5.8,30.03,North,357,3.6,4.9,56,0.00,,---,0.00,VWS V14.01,2013-10-28 19:42:00,
2013-10-28 13:44:00,18.7,5.6,30.03,North,3,3.1,4.0,56,0.00,,---,0.00,VWS V14.01,2013-10-28 19:44:00,
2013-10-28 13:45:00,18.7,6.0,30.03,North,3,3.1,3.1,57,0.00,,---,0.00,VWS V14.01,2013-10-28 19:45:00,
2013-10-28 13:46:00,18.7,6.0,30.03,NNW,339,3.1,3.1,57,0.00,,---,0.00,VWS V14.01,2013-10-28 19:46:00,
2013-10-28 13:48:00,18.7,6.4,30.03,North,357,4.0,5.8,58,0.00,,---,0.00,VWS V14.01,2013-10-28 19:48:00,
2013-10-28 13:50:00,18.7,6.4,30.03,North,3,4.9,4.9,58,0.00,,---,0.00,VWS V14.01,2013-10-28 19:50:00,
2013-10-28 13:51:00,18.7,6.4,30.03,North,0,3.1,3.1,58,0.00,,---,0.00,VWS V14.01,2013-10-28 19:51:00,
2013-10-28 13:53:00,18.7,6.7,30.03,North,9,3.1,3.1,59,0.00,,---,0.00,VWS V14.01,2013-10-28 19:53:00,
2013-10-28 13:55:00,18.5,6.6,30.03,North,353,3.6,3.6,59,0.00,,---,0.00,VWS V14.01,2013-10-28 19:55:00,
2013-10-28 13:56:00,18.7,6.7,30.03,North,353,2.7,2.7,59,0.00,,---,0.00,VWS V14.01,2013-10-28 19:56:00,
2013-10-28 13:57:00,18.7,6.7,30.03,North,0,3.6,3.6,59,0.00,,---,0.00,VWS V14.01,2013-10-28 19:57:00,
2013-10-28 13:58:00,18.7,6.7,30.03,NNW,343,2.7,3.1,59,0.00,,---,0.00,VWS V14.01,2013-10-28 19:58:00,
2013-10-28 14:00:00,18.9,7.3,30.03,NNW,343,2.2,2.7,60,0.00,,---,0.00,VWS V14.01,2013-10-28 20:00:00,
2013-10-28 14:01:00,18.9,7.3,30.03,North,350,3.6,4.0,60,0.00,,---,0.00,VWS V14.01,2013-10-28 20:01:00,
2013-10-28 14:02:00,19.0,7.4,30.03,North,353,3.6,3.6,60,0.00,,---,0.00,VWS V14.01,2013-10-28 20:02:00,
2013-10-28 14:03:00,18.9,6.9,30.03,North,353,4.0,4.0,59,0.00,,---,0.00,VWS V14.01,2013-10-28 20:03:00,
2013-10-28 14:05:00,18.9,6.9,30.03,NW,320,3.6,3.6,59,0.00,,---,0.00,VWS V14.01,2013-10-28 20:05:00,
2013-10-28 14:06:00,18.7,6.7,30.03,NNW,337,4.0,4.0,59,0.00,,---,0.00,VWS V14.01,2013-10-28 20:06:00,
2013-10-28 14:07:00,18.7,6.7,30.03,NNW,339,2.7,3.1,59,0.00,,---,0.00,VWS V14.01,2013-10-28 20:07:00,
2013-10-28 14:09:00,18.7,6.7,30.03,NNW,328,2.7,3.6,59,0.00,,---,0.00,VWS V14.01,2013-10-28 20:09:00,
2013-10-28 14:10:00,18.7,6.7,30.03,NNW,328,2.7,3.1,59,0.00,,---,0.00,VWS V14.01,2013-10-28 20:10:00,
2013-10-28 14:11:00,18.7,6.7,30.03,NNW,348,4.0,4.0,59,0.00,,---,0.00,VWS V14.01,2013-10-28 20:11:00,
2013-10-28 14:12:00,18.7,6.7,30.03,NNW,346,2.2,2.7,59,0.00,,---,0.00,VWS V14.01,2013-10-28 20:12:00,
2013-10-28 14:14:00,18.7,6.7,30.03,North,357,3.1,4.0,59,0.00,,---,0.00,VWS V14.01,2013-10-28 20:14:00,
2013-10-28 14:15:00,18.7,6.7,30.03,North,357,2.2,2.7,59,0.00,,,0.00,VWS V15.00,2013-10-28 20:15:00,
2013-10-28 14:16:00,18.7,6.7,30.03,North,353,2.7,3.6,59,0.00,,---,0.00,VWS V14.01,2013-10-28 20:16:00,
2013-10-28 14:17:00,18.7,6.7,30.03,NW,318,3.1,3.1,59,0.00,,---,0.00,VWS V14.01,2013-10-28 20:17:00,
2013-10-28 14:18:00,18.7,7.1,30.03,North,349,3.6,3.6,60,0.00,,---,0.00,VWS V14.01,2013-10-28 20:18:00,
2013-10-28 14:20:00,18.5,6.6,30.03,North,357,2.7,4.0,59,0.00,,---,0.00,VWS V14.01,2013-10-28 20:20:00,
2013-10-28 14:21:00,18.5,6.6,30.03,North,357,4.0,4.0,59,0.00,,---,0.00,VWS V14.01,2013-10-28 20:21:00,
2013-10-28 14:22:00,18.5,6.6,30.03,North,353,2.2,2.2,59,0.00,,---,0.00,VWS V14.01,2013-10-28 20:22:00,
2013-10-28 14:23:00,18.5,6.9,30.03,NNW,340,3.1,3.1,60,0.00,,---,0.00,VWS V14.01,2013-10-28 20:23:00,
2013-10-28 14:25:00,18.5,6.9,30.03,NW,307,3.1,4.0,60,0.00,,---,0.00,VWS V14.01,2013-10-28 20:25:00,
2013-10-28 14:26:00,18.5,6.9,30.03,NW,320,2.7,2.7,60,0.00,,---,0.00,VWS V14.01,2013-10-28 20:26:00,
2013-10-28 14:27:00,18.5,6.9,30.03,NW,321,3.1,3.1,60,0.00,,---,0.00,VWS V14.01,2013-10-28 20:27:00,
2013-10-28 14:28:00,18.5,6.9,30.03,NW,322,3.1,4.0,60,0.00,,---,0.00,VWS V14.01,2013-10-28 20:28:00,
2013-10-28 14:30:00,18.5,6.6,30.03,NW,326,3.1,3.1,59,0.00,,---,0.00,VWS V14.01,2013-10-28 20:30:00,
2013-10-28 14:31:00,18.3,6.4,30.00,NW,322,2.2,3.1,59,0.00,,---,0.00,VWS V14.01,2013-10-28 20:31:00,
2013-10-28 14:32:00,18.3,6.4,30.00,NW,315,2.7,2.7,59,0.00,,---,0.00,VWS V14.01,2013-10-28 20:32:00,
2013-10-28 14:33:00,18.3,6.4,30.00,NW,315,2.2,2.2,59,0.00,,---,0.00,VWS V14.01,2013-10-28 20:33:00,
2013-10-28 14:35:00,18.3,6.8,30.00,NW,319,0.0,2.2,60,0.00,,---,0.00,VWS V14.01,2013-10-28 20:35:00,
2013-10-28 14:37:00,18.3,6.8,30.00,North,0,2.7,3.1,60,0.00,,---,0.00,VWS V14.01,2013-10-28 20:37:00,
2013-10-28 14:38:00,18.3,6.8,30.00,NNW,328,2.2,4.0,60,0.00,,---,0.00,VWS V14.01,2013-10-28 20:38:00,
2013-10-28 14:41:00,18.3,6.4,30.00,North,0,0.0,2.2,59,0.00,,---,0.00,VWS V14.01,2013-10-28 20:41:00,
2013-10-28 14:42:00,18.1,6.2,30.00,NNW,332,3.1,3.6,59,0.00,,---,0.00,VWS V14.01,2013-10-28 20:42:00,
2013-10-28 14:43:00,18.1,6.2,30.00,NNW,332,2.2,2.2,59,0.00,,---,0.00,VWS V14.01,2013-10-28 20:43:00,
2013-10-28 14:44:00,18.3,6.8,30.00,NNW,327,2.7,2.7,60,0.00,,---,0.00,VWS V14.01,2013-10-28 20:44:00,
2013-10-28 14:45:00,18.3,6.8,30.00,NNW,335,3.1,3.1,60,0.00,,,0.00,VWS V15.00,2013-10-28 20:45:00,
2013-10-28 14:46:00,18.3,6.8,30.00,NW,322,2.2,2.2,60,0.00,,---,0.00,VWS V14.01,2013-10-28 20:46:00,
2013-10-28 14:47:00,18.3,6.8,30.00,NW,322,2.2,2.2,60,0.00,,---,0.00,VWS V14.01,2013-10-28 20:47:00,
2013-10-28 14:48:00,18.3,6.8,30.00,NW,319,2.7,3.1,60,0.00,,---,0.00,VWS V14.01,2013-10-28 20:48:00,
2013-10-28 14:50:00,18.3,6.4,30.00,NW,314,2.7,3.1,59,0.00,,---,0.00,VWS V14.01,2013-10-28 20:50:00,
2013-10-28 14:52:00,18.3,6.4,30.00,NW,319,2.7,3.6,59,0.00,,---,0.00,VWS V14.01,2013-10-28 20:52:00,
2013-10-28 14:53:00,18.3,6.4,30.00,NNW,341,3.1,3.1,59,0.00,,---,0.00,VWS V14.01,2013-10-28 20:53:00,
2013-10-28 14:55:00,18.1,5.9,30.00,NW,319,3.6,4.5,58,0.00,,---,0.00,VWS V14.01,2013-10-28 20:55:00,
2013-10-28 14:57:00,18.0,5.7,30.00,NW,319,2.2,2.7,58,0.00,,---,0.00,VWS V14.01,2013-10-28 20:57:00,
2013-10-28 14:58:00,18.0,5.7,30.00,NW,319,2.7,3.6,58,0.00,,---,0.00,VWS V14.01,2013-10-28 20:58:00,
2013-10-28 14:59:00,18.0,5.7,30.00,NW,313,2.7,3.6,58,0.00,,---,0.00,VWS V14.01,2013-10-28 20:59:00,
2013-10-28 15:00:00,18.0,5.7,30.00,NW,311,2.2,3.6,58,0.00,,,0.00,VWS V15.00,2013-10-28 21:00:00,
2013-10-28 15:01:00,18.0,5.7,30.00,NW,311,3.1,3.1,58,0.00,,---,0.00,VWS V14.01,2013-10-28 21:01:00,
2013-10-28 15:02:00,18.0,5.7,30.00,NW,307,3.1,3.6,58,0.00,,---,0.00,VWS V14.01,2013-10-28 21:02:00,
2013-10-28 15:03:00,18.0,5.7,30.00,WNW,300,2.7,2.7,58,0.00,,---,0.00,VWS V14.01,2013-10-28 21:03:00,
2013-10-28 15:04:00,18.0,5.7,30.00,NW,312,3.6,3.6,58,0.00,,---,0.00,VWS V14.01,2013-10-28 21:04:00,
2013-10-28 15:06:00,17.8,5.1,30.00,NNW,339,2.7,2.7,57,0.00,,---,0.00,VWS V14.01,2013-10-28 21:06:00,
2013-10-28 15:07:00,17.8,5.1,30.00,NW,311,2.2,3.6,57,0.00,,---,0.00,VWS V14.01,2013-10-28 21:07:00,
2013-10-28 15:08:00,17.8,5.1,30.00,NW,312,2.7,2.7,57,0.00,,---,0.00,VWS V14.01,2013-10-28 21:08:00,
2013-10-28 15:09:00,17.8,5.1,30.00,NW,312,4.0,4.0,57,0.00,,---,0.00,VWS V14.01,2013-10-28 21:09:00,
2013-10-28 15:12:00,17.8,5.1,30.00,NNW,339,3.1,3.1,57,0.00,,---,0.00,VWS V14.01,2013-10-28 21:12:00,
2013-10-28 15:13:00,17.8,5.1,30.00,NW,308,3.1,3.1,57,0.00,,---,0.00,VWS V14.01,2013-10-28 21:13:00,
2013-10-28 15:14:00,17.8,5.1,30.00,NW,309,2.7,2.7,57,0.00,,---,0.00,VWS V14.01,2013-10-28 21:14:00,
2013-10-28 15:15:00,17.8,5.1,30.00,NW,314,2.7,3.6,57,0.00,,,0.00,VWS V15.00,2013-10-28 21:15:00,
2013-10-28 15:17:00,17.8,5.1,30.00,NW,311,3.1,3.1,57,0.00,,---,0.00,VWS V14.01,2013-10-28 21:17:00,
2013-10-28 15:18:00,17.8,5.1,30.00,NW,312,2.7,2.7,57,0.00,,---,0.00,VWS V14.01,2013-10-28 21:18:00,
2013-10-28 15:19:00,17.6,5.3,30.00,NNW,333,3.1,3.1,58,0.00,,---,0.00,VWS V14.01,2013-10-28 21:19:00,
2013-10-28 15:22:00,17.6,5.3,30.00,NW,318,2.2,3.1,58,0.00,,---,0.00,VWS V14.01,2013-10-28 21:22:00,
2013-10-28 15:23:00,17.6,5.3,30.00,NW,318,2.2,2.7,58,0.00,,---,0.00,VWS V14.01,2013-10-28 21:23:00,
2013-10-28 15:24:00,17.6,5.3,30.00,NW,319,0.0,0.0,58,0.00,,---,0.00,VWS V14.01,2013-10-28 21:24:00,
2013-10-28 15:27:00,17.6,5.3,30.00,NW,312,4.0,4.0,58,0.00,,---,0.00,VWS V14.01,2013-10-28 21:27:00,
2013-10-28 15:28:00,17.6,5.3,30.00,NW,312,2.7,2.7,58,0.00,,---,0.00,VWS V14.01,2013-10-28 21:28:00,
2013-10-28 15:29:00,17.6,5.0,30.00,NW,307,2.2,2.7,57,0.00,,---,0.00,VWS V14.01,2013-10-28 21:29:00,
2013-10-28 15:30:00,17.8,5.1,30.00,NW,307,2.7,2.7,57,0.00,,,0.00,VWS V15.00,2013-10-28 21:30:00,
2013-10-28 15:32:00,17.8,5.1,30.00,NW,308,3.6,3.6,57,0.00,,---,0.00,VWS V14.01,2013-10-28 21:32:00,
2013-10-28 15:33:00,17.8,5.1,30.00,WNW,302,2.2,3.1,57,0.00,,---,0.00,VWS V14.01,2013-10-28 21:33:00,
2013-10-28 15:34:00,17.8,5.1,30.00,WNW,302,2.7,2.7,57,0.00,,---,0.00,VWS V14.01,2013-10-28 21:34:00,
2013-10-28 15:37:00,17.8,5.1,30.00,WNW,288,2.7,2.7,57,0.00,,---,0.00,VWS V14.01,2013-10-28 21:37:00,
2013-10-28 15:38:00,17.8,5.1,30.00,WNW,288,3.1,3.1,57,0.00,,---,0.00,VWS V14.01,2013-10-28 21:38:00,
2013-10-28 15:39:00,17.8,5.1,30.00,WNW,292,0.0,0.0,57,0.00,,---,0.00,VWS V14.01,2013-10-28 21:39:00,
2013-10-28 15:40:00,18.0,5.3,30.00,NW,326,0.0,0.0,57,0.00,,---,0.00,VWS V14.01,2013-10-28 21:40:00,
2013-10-28 15:43:00,18.1,5.5,30.00,NW,316,2.2,2.2,57,0.00,,---,0.00,VWS V14.01,2013-10-28 21:43:00,
2013-10-28 15:44:00,18.1,5.5,30.00,NW,312,3.6,3.6,57,0.00,,---,0.00,VWS V14.01,2013-10-28 21:44:00,
2013-10-28 15:45:00,18.1,5.5,30.00,NW,315,3.1,3.1,57,0.00,,---,0.00,VWS V14.01,2013-10-28 21:45:00,
2013-10-28 15:48:00,18.1,5.1,30.00,NNW,343,0.0,0.0,56,0.00,,---,0.00,VWS V14.01,2013-10-28 21:48:00,
2013-10-28 15:49:00,18.1,5.1,30.00,NNW,343,0.0,0.0,56,0.00,,---,0.00,VWS V14.01,2013-10-28 21:49:00,
2013-10-28 15:50:00,18.1,5.1,30.00,NNW,343,0.0,0.0,56,0.00,,---,0.00,VWS V14.01,2013-10-28 21:50:00,
2013-10-28 15:51:00,18.1,5.5,30.00,NNW,343,0.0,0.0,57,0.00,,---,0.00,VWS V14.01,2013-10-28 21:51:00,
2013-10-28 15:53:00,18.3,5.7,30.00,NW,324,3.1,3.6,57,0.00,,---,0.00,VWS V14.01,2013-10-28 21:53:00,
2013-10-28 15:54:00,18.3,5.3,30.00,NNW,331,2.2,2.2,56,0.00,,---,0.00,VWS V14.01,2013-10-28 21:54:00,
2013-10-28 15:55:00,18.3,5.3,30.00,NW,326,0.0,0.0,56,0.00,,---,0.00,VWS V14.01,2013-10-28 21:55:00,
2013-10-28 15:57:00,18.3,5.3,30.00,NW,310,0.0,3.1,56,0.00,,---,0.00,VWS V14.01,2013-10-28 21:57:00,
2013-10-28 15:58:00,18.3,5.3,30.00,NW,310,2.2,2.2,56,0.00,,---,0.00,VWS V14.01,2013-10-28 21:58:00,
2013-10-28 15:59:00,18.3,5.3,30.00,NW,308,2.7,2.7,56,0.00,,---,0.00,VWS V14.01,2013-10-28 21:59:00,
2013-10-28 16:00:00,18.3,5.3,30.00,NW,308,2.7,2.7,56,0.00,,---,0.00,VWS V14.01,2013-10-28 22:00:00,
2013-10-28 16:02:00,18.1,5.1,30.00,NW,309,2.2,2.2,56,0.00,,---,0.00,VWS V14.01,2013-10-28 22:02:00,
2013-10-28 16:03:00,18.1,5.1,30.00,NW,309,2.2,2.7,56,0.00,,---,0.00,VWS V14.01,2013-10-28 22:03:00,
2013-10-28 16:04:00,18.1,5.1,30.00,WNW,297,0.0,0.0,56,0.00,,---,0.00,VWS V14.01,2013-10-28 22:04:00,
2013-10-28 16:05:00,18.1,4.7,30.00,WNW,295,0.0,0.0,55,0.00,,---,0.00,VWS V14.01,2013-10-28 22:05:00,
2013-10-28 16:08:00,18.1,4.7,30.00,WNW,296,0.0,0.0,55,0.00,,---,0.00,VWS V14.01,2013-10-28 22:08:00,
2013-10-28 16:09:00,18.1,4.7,30.00,WNW,296,0.0,0.0,55,0.00,,---,0.00,VWS V14.01,2013-10-28 22:09:00,
2013-10-28 16:10:00,18.1,4.7,30.00,WNW,302,2.7,3.6,55,0.00,,---,0.00,VWS V14.01,2013-10-28 22:10:00,
2013-10-28 16:13:00,17.8,4.4,30.00,WNW,303,2.2,2.2,55,0.00,,---,0.00,VWS V14.01,2013-10-28 22:13:00,
2013-10-28 16:14:00,17.8,4.4,30.00,WNW,303,2.2,2.2,55,0.00,,---,0.00,VWS V14.01,2013-10-28 22:14:00,
2013-10-28 16:15:00,17.8,4.4,30.00,NW,306,2.7,2.7,55,0.00,,---,0.00,VWS V14.01,2013-10-28 22:15:00,
2013-10-28 16:16:00,17.8,4.4,30.00,NW,325,3.6,4.9,55,0.00,,---,0.00,VWS V14.01,2013-10-28 22:16:00,
2013-10-28 16:19:00,17.6,4.6,30.00,NW,323,0.0,0.0,56,0.00,,---,0.00,VWS V14.01,2013-10-28 22:19:00,
2013-10-28 16:20:00,17.6,4.6,30.00,NW,323,0.0,0.0,56,0.00,,---,0.00,VWS V14.01,2013-10-28 22:20:00,
2013-10-28 16:21:00,17.6,4.6,30.00,NW,323,0.0,0.0,56,0.00,,---,0.00,VWS V14.01,2013-10-28 22:21:00,
2013-10-28 16:24:00,17.4,4.4,30.00,NW,314,2.7,2.7,56,0.00,,---,0.00,VWS V14.01,2013-10-28 22:24:00,
2013-10-28 16:25:00,17.4,4.4,30.00,NNW,327,2.7,3.1,56,0.00,,---,0.00,VWS V14.01,2013-10-28 22:25:00,
2013-10-28 16:26:00,17.4,4.4,30.00,NNW,329,2.2,2.7,56,0.00,,---,0.00,VWS V14.01,2013-10-28 22:26:00,
2013-10-28 16:29:00,17.4,4.4,30.00,NW,324,2.2,2.2,56,0.00,,---,0.00,VWS V14.01,2013-10-28 22:29:00,
2013-10-28 16:30:00,17.4,4.4,30.00,NW,323,3.6,3.6,56,0.00,,---,0.00,VWS V14.01,2013-10-28 22:30:00,
2013-10-28 16:31:00,17.4,4.4,30.00,WNW,301,0.0,2.2,56,0.00,,---,0.00,VWS V14.01,2013-10-28 22:31:00,
2013-10-28 16:34:00,17.4,4.4,30.00,NW,305,0.0,0.0,56,0.00,,---,0.00,VWS V14.01,2013-10-28 22:34:00,
2013-10-28 16:35:00,17.4,4.4,30.00,NW,305,2.2,2.7,56,0.00,,---,0.00,VWS V14.01,2013-10-28 22:35:00,
2013-10-28 16:36:00,17.4,4.4,30.00,NNW,331,2.2,3.6,56,0.00,,---,0.00,VWS V14.01,2013-10-28 22:36:00,
2013-10-28 16:37:00,17.4,4.4,30.00,NNW,331,0.0,2.2,56,0.00,,---,0.00,VWS V14.01,2013-10-28 22:37:00,
2013-10-28 16:39:00,17.4,4.8,30.00,NW,321,0.0,0.0,57,0.00,,---,0.00,VWS V14.01,2013-10-28 22:39:00,
2013-10-28 16:40:00,17.4,4.8,30.00,NW,313,0.0,0.0,57,0.00,,---,0.00,VWS V14.01,2013-10-28 22:40:00,
2013-10-28 16:41:00,17.4,4.8,30.00,WNW,297,0.0,0.0,57,0.00,,---,0.00,VWS V14.01,2013-10-28 22:41:00,
2013-10-28 16:42:00,17.4,4.8,30.00,WNW,297,0.0,0.0,57,0.00,,---,0.00,VWS V14.01,2013-10-28 22:42:00,
2013-10-28 16:44:00,17.4,4.8,30.00,WNW,290,0.0,0.0,57,0.00,,---,0.00,VWS V14.01,2013-10-28 22:44:00,
2013-10-28 16:45:00,17.4,4.8,30.00,WNW,290,0.0,0.0,57,0.00,,---,0.00,VWS V14.01,2013-10-28 22:45:00,
2013-10-28 16:46:00,17.4,4.8,30.00,WNW,290,0.0,0.0,57,0.00,,---,0.00,VWS V14.01,2013-10-28 22:46:00,
2013-10-28 16:47:00,17.4,4.8,30.00,WNW,290,0.0,0.0,57,0.00,,---,0.00,VWS V14.01,2013-10-28 22:47:00,
2013-10-28 16:49:00,17.4,4.8,30.00,WNW,303,0.0,0.0,57,0.00,,---,0.00,VWS V14.01,2013-10-28 22:49:00,
2013-10-28 16:50:00,17.4,4.8,30.00,WNW,303,0.0,0.0,57,0.00,,---,0.00,VWS V14.01,2013-10-28 22:50:00,
2013-10-28 16:51:00,17.2,4.6,30.00,NW,312,3.1,3.1,57,0.00,,---,0.00,VWS V14.01,2013-10-28 22:51:00,
2013-10-28 16:52:00,17.2,4.6,30.00,NW,312,2.2,2.7,57,0.00,,---,0.00,VWS V14.01,2013-10-28 22:52:00,
2013-10-28 16:55:00,17.2,4.6,30.00,WNW,303,2.2,2.7,57,0.00,,---,0.00,VWS V14.01,2013-10-28 22:55:00,
2013-10-28 16:56:00,17.2,4.6,30.00,WNW,303,0.0,0.0,57,0.00,,---,0.00,VWS V14.01,2013-10-28 22:56:00,
2013-10-28 16:57:00,17.2,4.6,30.00,WNW,303,0.0,0.0,57,0.00,,---,0.00,VWS V14.01,2013-10-28 22:57:00,
2013-10-28 16:58:00,17.2,4.6,30.00,WNW,301,0.0,0.0,57,0.00,,---,0.00,VWS V14.01,2013-10-28 22:58:00,
2013-10-28 17:00:00,17.2,4.6,30.00,WNW,303,0.0,0.0,57,0.00,,---,0.00,VWS V14.01,2013-10-28 23:00:00,
2013-10-28 17:01:00,17.2,4.6,30.00,NW,308,2.7,2.7,57,0.00,,---,0.00,VWS V14.01,2013-10-28 23:01:00,
2013-10-28 17:02:00,17.2,4.6,30.00,NW,311,3.1,3.1,57,0.00,,---,0.00,VWS V14.01,2013-10-28 23:02:00,
2013-10-28 17:03:00,17.2,4.6,30.00,NNW,330,3.1,3.1,57,0.00,,---,0.00,VWS V14.01,2013-10-28 23:03:00,
2013-10-28 17:05:00,17.2,4.6,30.00,NNW,329,2.7,2.7,57,0.00,,---,0.00,VWS V14.01,2013-10-28 23:05:00,
2013-10-28 17:07:00,17.2,4.6,30.00,North,350,3.1,3.1,57,0.00,,---,0.00,VWS V14.01,2013-10-28 23:07:00,
2013-10-28 17:08:00,17.1,4.5,30.00,NNW,348,3.1,3.1,57,0.00,,---,0.00,VWS V14.01,2013-10-28 23:08:00,
2013-10-28 17:10:00,17.1,4.5,30.00,North,350,3.1,3.1,57,0.00,,---,0.00,VWS V14.01,2013-10-28 23:10:00,
2013-10-28 17:12:00,17.1,4.5,30.00,NNW,341,2.2,2.2,57,0.00,,---,0.00,VWS V14.01,2013-10-28 23:12:00,
2013-10-28 17:13:00,17.1,4.5,30.00,NNW,327,3.6,3.6,57,0.00,,---,0.00,VWS V14.01,2013-10-28 23:13:00,
2013-10-28 17:15:00,17.1,4.5,30.00,NNW,327,0.0,2.7,57,0.00,,---,0.00,VWS V14.01,2013-10-28 23:15:00,
2013-10-28 17:17:00,17.1,4.8,30.00,NW,322,2.7,3.1,58,0.00,,---,0.00,VWS V14.01,2013-10-28 23:17:00,
2013-10-28 17:18:00,17.1,4.8,30.00,NW,322,0.0,0.0,58,0.00,,---,0.00,VWS V14.01,2013-10-28 23:18:00,
2013-10-28 17:20:00,17.1,4.8,30.00,NW,319,0.0,0.0,58,0.00,,---,0.00,VWS V14.01,2013-10-28 23:20:00,
2013-10-28 17:22:00,17.1,4.8,30.00,NW,310,2.2,2.7,58,0.00,,---,0.00,VWS V14.01,2013-10-28 23:22:00,
2013-10-28 17:23:00,17.1,4.8,30.00,NW,310,2.2,2.7,58,0.00,,---,0.00,VWS V14.01,2013-10-28 23:23:00,
2013-10-28 17:24:00,17.1,4.8,30.00,NW,312,2.7,2.7,58,0.00,,---,0.00,VWS V14.01,2013-10-28 23:24:00,
2013-10-28 17:25:00,17.1,4.8,30.00,NW,312,0.0,0.0,58,0.00,,---,0.00,VWS V14.01,2013-10-28 23:25:00,
2013-10-28 17:26:00,16.9,4.7,30.00,NW,312,0.0,0.0,58,0.00,,---,0.00,VWS V14.01,2013-10-28 23:26:00,
2013-10-28 17:27:00,16.9,4.7,30.00,NW,312,0.0,0.0,58,0.00,,---,0.00,VWS V14.01,2013-10-28 23:27:00,
2013-10-28 17:28:00,16.9,4.7,30.00,NW,312,0.0,0.0,58,0.00,,---,0.00,VWS V14.01,2013-10-28 23:28:00,
2013-10-28 17:29:00,16.9,4.7,30.00,NW,305,0.0,0.0,58,0.00,,---,0.00,VWS V14.01,2013-10-28 23:29:00,
2013-10-28 17:30:00,16.9,4.7,30.00,NW,305,0.0,0.0,58,0.00,,,0.00,VWS V15.00,2013-10-28 23:30:00,
2013-10-28 17:31:00,16.9,5.0,30.00,NW,305,0.0,0.0,59,0.00,,---,0.00,VWS V14.01,2013-10-28 23:31:00,
2013-10-28 17:32:00,16.9,5.0,30.00,NNW,327,2.2,2.7,59,0.00,,---,0.00,VWS V14.01,2013-10-28 23:32:00,
2013-10-28 17:33:00,16.9,5.0,30.00,NW,325,2.7,2.7,59,0.00,,---,0.00,VWS V14.01,2013-10-28 23:33:00,
2013-10-28 17:34:00,16.9,5.0,30.00,NW,325,0.0,2.2,59,0.00,,---,0.00,VWS V14.01,2013-10-28 23:34:00,
2013-10-28 17:36:00,16.9,5.0,30.00,NW,324,2.2,2.2,59,0.00,,---,0.00,VWS V14.01,2013-10-28 23:36:00,
2013-10-28 17:38:00,16.7,4.9,30.00,NW,324,0.0,0.0,59,0.00,,---,0.00,VWS V14.01,2013-10-28 23:38:00,
2013-10-28 17:39:00,16.7,4.9,30.00,NW,324,0.0,0.0,59,0.00,,---,0.00,VWS V14.01,2013-10-28 23:39:00,
2013-10-28 17:41:00,16.7,4.9,30.00,NW,324,0.0,0.0,59,0.00,,---,0.00,VWS V14.01,2013-10-28 23:41:00,
2013-10-28 17:42:00,16.7,5.2,30.00,WNW,296,3.1,3.6,60,0.00,,---,0.00,VWS V14.01,2013-10-28 23:42:00,
2013-10-28 17:43:00,16.7,5.2,30.00,NW,318,3.1,3.1,60,0.00,,---,0.00,VWS V14.01,2013-10-28 23:43:00,
2013-10-28 17:44:00,16.7,5.2,30.00,NNW,344,0.0,0.0,60,0.00,,---,0.00,VWS V14.01,2013-10-28 23:44:00,
2013-10-28 17:45:00,16.7,5.2,30.00,NNW,344,0.0,0.0,60,0.00,,,0.00,VWS V15.00,2013-10-28 23:45:00,
2013-10-28 17:46:00,16.7,5.2,30.00,NNW,341,0.0,0.0,60,0.00,,---,0.00,VWS V14.01,2013-10-28 23:46:00,
2013-10-28 17:47:00,16.7,5.2,30.00,NNW,341,0.0,0.0,60,0.00,,---,0.00,VWS V14.01,2013-10-28 23:47:00,
2013-10-28 17:48:00,16.7,5.2,30.00,NNW,341,0.0,0.0,60,0.00,,---,0.00,VWS V14.01,2013-10-28 23:48:00,
2013-10-28 17:49:00,16.7,5.2,30.00,NNW,341,0.0,0.0,60,0.00,,---,0.00,VWS V14.01,2013-10-28 23:49:00,
2013-10-28 17:50:00,16.7,5.2,30.00,NNW,327,0.0,0.0,60,0.00,,---,0.00,VWS V14.01,2013-10-28 23:50:00,
2013-10-28 17:51:00,16.7,5.2,30.00,NNW,348,3.6,3.6,60,0.00,,---,0.00,VWS V14.01,2013-10-28 23:51:00,
2013-10-28 17:52:00,16.5,5.1,30.00,North,357,3.6,3.6,60,0.00,,---,0.00,VWS V14.01,2013-10-28 23:52:00,
2013-10-28 17:53:00,16.5,5.1,30.00,North,0,3.1,3.1,60,0.00,,---,0.00,VWS V14.01,2013-10-28 23:53:00,
2013-10-28 17:54:00,16.5,5.1,30.00,North,0,2.2,2.2,60,0.00,,---,0.00,VWS V14.01,2013-10-28 23:54:00,
2013-10-28 17:55:00,16.5,5.4,30.00,North,357,2.2,2.2,61,0.00,,---,0.00,VWS V14.01,2013-10-28 23:55:00,
2013-10-28 17:56:00,16.5,5.4,30.00,North,0,0.0,2.2,61,0.00,,---,0.00,VWS V14.01,2013-10-28 23:56:00,
2013-10-28 17:57:00,16.5,5.4,30.00,NNW,345,2.7,2.7,61,0.00,,---,0.00,VWS V14.01,2013-10-28 23:57:00,
2013-10-28 17:58:00,16.5,5.4,30.00,NNW,345,0.0,0.0,61,0.00,,---,0.00,VWS V14.01,2013-10-28 23:58:00,
2013-10-28 18:00:00,16.5,5.4,30.00,NNW,346,0.0,0.0,61,0.00,,---,0.00,VWS V14.01,2013-10-29 00:00:00,
2013-10-28 18:01:00,16.5,5.4,30.00,NNW,340,0.0,0.0,61,0.00,,---,0.00,VWS V14.01,2013-10-29 00:01:00,
2013-10-28 18:02:00,16.5,5.4,30.00,NNW,343,0.0,0.0,61,0.00,,---,0.00,VWS V14.01,2013-10-29 00:02:00,
2013-10-28 18:03:00,16.5,5.4,30.00,NNW,342,0.0,0.0,61,0.00,,---,0.00,VWS V14.01,2013-10-29 00:03:00,
2013-10-28 18:05:00,16.5,5.4,30.00,NNW,342,0.0,0.0,61,0.00,,---,0.00,VWS V14.01,2013-10-29 00:05:00,
2013-10-28 18:06:00,16.5,5.4,30.00,NNW,337,0.0,0.0,61,0.00,,---,0.00,VWS V14.01,2013-10-29 00:06:00,
2013-10-28 18:07:00,16.5,5.8,30.00,NW,321,0.0,0.0,62,0.00,,---,0.00,VWS V14.01,2013-10-29 00:07:00,
2013-10-28 18:08:00,16.3,5.6,30.00,NW,322,0.0,0.0,62,0.00,,---,0.00,VWS V14.01,2013-10-29 00:08:00,
2013-10-28 18:10:00,16.3,5.6,30.00,NW,320,0.0,0.0,62,0.00,,---,0.00,VWS V14.01,2013-10-29 00:10:00,
2013-10-28 18:11:00,16.3,5.6,30.00,NW,320,0.0,0.0,62,0.00,,---,0.00,VWS V14.01,2013-10-29 00:11:00,
2013-10-28 18:12:00,16.3,5.6,30.00,NW,321,0.0,0.0,62,0.00,,---,0.00,VWS V14.01,2013-10-29 00:12:00,
2013-10-28 18:13:00,16.3,5.6,30.00,NNW,335,0.0,0.0,62,0.00,,---,0.00,VWS V14.01,2013-10-29 00:13:00,
2013-10-28 18:15:00,16.3,5.6,30.00,NNW,335,0.0,0.0,62,0.00,,,0.00,VWS V15.00,2013-10-29 00:15:00,
2013-10-28 18:16:00,16.2,5.4,30.00,NNW,335,0.0,0.0,62,0.00,,---,0.00,VWS V14.01,2013-10-29 00:16:00,
2013-10-28 18:17:00,16.2,5.4,30.00,NW,325,0.0,0.0,62,0.00,,---,0.00,VWS V14.01,2013-10-29 00:17:00,
2013-10-28 18:18:00,16.2,5.4,30.00,NNW,327,2.7,3.1,62,0.00,,---,0.00,VWS V14.01,2013-10-29 00:18:00,
2013-10-28 18:21:00,16.2,5.8,30.00,NNW,327,0.0,0.0,63,0.00,,---,0.00,VWS V14.01,2013-10-29 00:21:00,
2013-10-28 18:22:00,16.2,5.8,30.00,NNW,327,0.0,0.0,63,0.00,,---,0.00,VWS V14.01,2013-10-29 00:22:00,
2013-10-28 18:23:00,16.2,5.8,30.00,NNW,327,0.0,0.0,63,0.00,,---,0.00,VWS V14.01,2013-10-29 00:23:00,
2013-10-28 18:24:00,16.2,5.8,30.00,NNW,327,0.0,0.0,63,0.00,,---,0.00,VWS V14.01,2013-10-29 00:24:00,
2013-10-28 18:26:00,16.2,5.8,30.00,NW,325,0.0,0.0,63,0.00,,---,0.00,VWS V14.01,2013-10-29 00:26:00,
2013-10-28 18:27:00,16.2,5.8,30.00,NW,325,0.0,0.0,63,0.00,,---,0.00,VWS V14.01,2013-10-29 00:27:00,
2013-10-28 18:28:00,16.2,5.8,30.00,NW,323,0.0,0.0,63,0.00,,---,0.00,VWS V14.01,2013-10-29 00:28:00,
2013-10-28 18:29:00,16.2,5.8,30.00,NW,320,0.0,0.0,63,0.00,,---,0.00,VWS V14.01,2013-10-29 00:29:00,
2013-10-28 18:30:00,16.2,5.8,30.00,WNW,300,0.0,0.0,63,0.00,,,0.00,VWS V15.00,2013-10-29 00:30:00,
2013-10-28 18:31:00,16.2,6.1,30.00,NW,316,2.2,3.6,64,0.00,,---,0.00,VWS V14.01,2013-10-29 00:31:00,
2013-10-28 18:32:00,16.2,6.1,30.00,NW,316,2.2,3.1,64,0.00,,---,0.00,VWS V14.01,2013-10-29 00:32:00,
2013-10-28 18:33:00,16.2,6.1,30.00,NNW,330,2.7,2.7,64,0.00,,---,0.00,VWS V14.01,2013-10-29 00:33:00,
2013-10-28 18:34:00,16.2,6.1,30.00,NW,326,2.2,2.7,64,0.00,,---,0.00,VWS V14.01,2013-10-29 00:34:00,
2013-10-28 18:37:00,16.2,6.1,30.00,NW,321,3.1,3.1,64,0.00,,---,0.00,VWS V14.01,2013-10-29 00:37:00,
2013-10-28 18:38:00,16.2,6.1,30.00,NW,321,2.7,2.7,64,0.00,,---,0.00,VWS V14.01,2013-10-29 00:38:00,
2013-10-28 18:39:00,16.2,6.1,30.00,NW,315,2.7,2.7,64,0.00,,---,0.00,VWS V14.01,2013-10-29 00:39:00,
2013-10-28 18:42:00,16.2,6.5,30.00,NW,323,3.6,3.6,65,0.00,,---,0.00,VWS V14.01,2013-10-29 00:42:00,
2013-10-28 18:43:00,16.2,6.5,30.00,NW,321,2.2,2.2,65,0.00,,---,0.00,VWS V14.01,2013-10-29 00:43:00,
2013-10-28 18:44:00,16.2,6.5,30.00,North,353,4.0,4.0,65,0.00,,---,0.00,VWS V14.01,2013-10-29 00:44:00,
2013-10-28 18:45:00,16.2,6.5,30.00,North,353,3.1,3.1,65,0.00,,,0.00,VWS V15.00,2013-10-29 00:45:00,
2013-10-28 18:47:00,16.2,6.5,30.00,North,353,3.1,3.1,65,0.00,,---,0.00,VWS V14.01,2013-10-29 00:47:00,
2013-10-28 18:48:00,16.2,6.5,30.00,North,353,2.2,2.7,65,0.00,,---,0.00,VWS V14.01,2013-10-29 00:48:00,
2013-10-28 18:49:00,16.2,6.5,30.00,NNW,345,2.7,2.7,65,0.00,,---,0.00,VWS V14.01,2013-10-29 00:49:00,
2013-10-28 18:52:00,16.0,6.3,30.00,NNW,340,2.2,2.2,65,0.00,,---,0.00,VWS V14.01,2013-10-29 00:52:00,
2013-10-28 18:53:00,16.0,6.3,30.00,NNW,328,2.7,2.7,65,0.00,,---,0.00,VWS V14.01,2013-10-29 00:53:00,
2013-10-28 18:54:00,16.0,6.3,30.00,NNW,328,0.0,0.0,65,0.00,,---,0.00,VWS V14.01,2013-10-29 00:54:00,
2013-10-28 18:57:00,16.0,6.3,30.00,NNW,331,0.0,0.0,65,0.00,,---,0.00,VWS V14.01,2013-10-29 00:57:00,
2013-10-28 18:58:00,16.0,6.3,30.00,NNW,331,0.0,0.0,65,0.00,,---,0.00,VWS V14.01,2013-10-29 00:58:00,
2013-10-28 18:59:00,16.0,6.6,30.00,NW,318,0.0,0.0,66,0.00,,---,0.00,VWS V14.01,2013-10-29 00:59:00,
2013-10-28 19:00:00,16.0,6.6,30.00,NW,317,0.0,0.0,66,0.00,,,0.00,VWS V15.00,2013-10-29 01:00:00,
2013-10-28 19:02:00,16.0,6.6,30.00,NNW,341,0.0,0.0,66,0.00,,---,0.00,VWS V14.01,2013-10-29 01:02:00,
2013-10-28 19:03:00,16.0,6.6,30.00,NNW,341,0.0,0.0,66,0.00,,---,0.00,VWS V14.01,2013-10-29 01:03:00,
2013-10-28 19:04:00,16.0,6.6,30.00,NNW,341,0.0,2.2,66,0.00,,---,0.00,VWS V14.01,2013-10-29 01:04:00,
2013-10-28 19:05:00,16.0,6.6,30.00,NNW,340,0.0,0.0,66,0.00,,---,0.00,VWS V14.01,2013-10-29 01:05:00,
2013-10-28 19:07:00,16.0,6.6,30.00,NW,314,3.1,3.1,66,0.00,,---,0.00,VWS V14.01,2013-10-29 01:07:00,
2013-10-28 19:08:00,16.0,6.6,30.00,NW,314,3.1,3.1,66,0.00,,---,0.00,VWS V14.01,2013-10-29 01:08:00,
2013-10-28 19:09:00,16.0,7.0,30.00,NW,315,0.0,2.2,67,0.00,,---,0.00,VWS V14.01,2013-10-29 01:09:00,
2013-10-28 19:10:00,16.0,7.0,30.00,NW,313,2.7,2.7,67,0.00,,---,0.00,VWS V14.01,2013-10-29 01:10:00,
2013-10-28 19:13:00,16.0,7.0,30.00,NW,314,0.0,0.0,67,0.00,,---,0.00,VWS V14.01,2013-10-29 01:13:00,
2013-10-28 19:14:00,16.0,7.0,30.00,NW,312,0.0,0.0,67,0.00,,---,0.00,VWS V14.01,2013-10-29 01:14:00,
2013-10-28 19:15:00,16.0,7.0,30.00,NW,311,0.0,0.0,67,0.00,,---,0.00,VWS V14.01,2013-10-29 01:15:00,
2013-10-28 19:18:00,16.0,7.3,30.00,NW,312,2.7,2.7,68,0.00,,---,0.00,VWS V14.01,2013-10-29 01:18:00,
2013-10-28 19:19:00,16.0,7.3,30.00,NW,312,2.2,2.7,68,0.00,,---,0.00,VWS V14.01,2013-10-29 01:19:00,
2013-10-28 19:20:00,16.0,7.3,30.00,WNW,295,2.7,2.7,68,0.00,,---,0.00,VWS V14.01,2013-10-29 01:20:00,
2013-10-28 19:23:00,16.0,7.6,30.00,WNW,295,0.0,0.0,69,0.00,,---,0.00,VWS V14.01,2013-10-29 01:23:00,
2013-10-28 19:24:00,16.0,7.6,30.00,WNW,285,0.0,0.0,69,0.00,,---,0.00,VWS V14.01,2013-10-29 01:24:00,
2013-10-28 19:25:00,16.0,7.9,30.00,WNW,286,0.0,0.0,70,0.00,,---,0.00,VWS V14.01,2013-10-29 01:25:00,
2013-10-28 19:26:00,16.0,7.9,30.00,WNW,287,0.0,0.0,70,0.00,,---,0.00,VWS V14.01,2013-10-29 01:26:00,
2013-10-28 19:28:00,16.0,7.9,30.00,WNW,287,0.0,0.0,70,0.00,,---,0.00,VWS V14.01,2013-10-29 01:28:00,
2013-10-28 19:29:00,16.0,7.9,30.00,WNW,294,0.0,0.0,70,0.00,,---,0.00,VWS V14.01,2013-10-29 01:29:00,
2013-10-28 19:30:00,16.0,7.9,30.00,WNW,294,0.0,0.0,70,0.00,,---,0.00,VWS V14.01,2013-10-29 01:30:00,
2013-10-28 19:31:00,16.0,7.9,30.00,WNW,293,0.0,0.0,70,0.00,,---,0.00,VWS V14.01,2013-10-29 01:31:00,
2013-10-28 19:33:00,16.0,7.9,30.00,WNW,294,0.0,0.0,70,0.00,,---,0.00,VWS V14.01,2013-10-29 01:33:00,
2013-10-28 19:34:00,16.0,7.9,30.00,WNW,294,0.0,0.0,70,0.00,,---,0.00,VWS V14.01,2013-10-29 01:34:00,
2013-10-28 19:35:00,16.0,7.9,30.00,WNW,302,0.0,0.0,70,0.00,,---,0.00,VWS V14.01,2013-10-29 01:35:00,
2013-10-28 19:36:00,16.0,7.9,30.00,WNW,303,0.0,0.0,70,0.00,,---,0.00,VWS V14.01,2013-10-29 01:36:00,
2013-10-28 19:38:00,16.0,7.9,30.00,NW,305,0.0,0.0,70,0.00,,---,0.00,VWS V14.01,2013-10-29 01:38:00,
2013-10-28 19:39:00,16.0,7.9,30.00,NW,305,0.0,0.0,70,0.00,,---,0.00,VWS V14.01,2013-10-29 01:39:00,
2013-10-28 19:40:00,16.0,7.9,30.00,NW,305,0.0,0.0,70,0.00,,---,0.00,VWS V14.01,2013-10-29 01:40:00,
2013-10-28 19:41:00,16.0,7.9,30.00,NW,305,0.0,0.0,70,0.00,,---,0.00,VWS V14.01,2013-10-29 01:41:00,
2013-10-28 19:43:00,16.0,7.9,30.00,NW,313,0.0,0.0,70,0.00,,---,0.00,VWS V14.01,2013-10-29 01:43:00,
2013-10-28 19:44:00,16.0,8.2,30.00,NW,306,0.0,0.0,71,0.00,,---,0.00,VWS V14.01,2013-10-29 01:44:00,
2013-10-28 19:45:00,16.0,8.2,30.00,NW,306,0.0,0.0,71,0.00,,,0.00,VWS V15.00,2013-10-29 01:45:00,
2013-10-28 19:46:00,16.0,8.2,30.00,WNW,295,0.0,0.0,71,0.00,,---,0.00,VWS V14.01,2013-10-29 01:46:00,
2013-10-28 19:47:00,16.0,8.2,30.00,WNW,294,0.0,0.0,71,0.00,,---,0.00,VWS V14.01,2013-10-29 01:47:00,
2013-10-28 19:48:00,16.0,8.2,30.00,WNW,294,0.0,0.0,71,0.00,,---,0.00,VWS V14.01,2013-10-29 01:48:00,
2013-10-28 19:49:00,16.0,8.2,30.00,WNW,292,0.0,0.0,71,0.00,,---,0.00,VWS V14.01,2013-10-29 01:49:00,
2013-10-28 19:51:00,16.0,8.6,30.00,WNW,294,0.0,0.0,72,0.00,,---,0.00,VWS V14.01,2013-10-29 01:51:00,
2013-10-28 19:52:00,16.0,8.6,30.00,WNW,295,0.0,0.0,72,0.00,,---,0.00,VWS V14.01,2013-10-29 01:52:00,
2013-10-28 19:53:00,16.0,8.6,30.00,NW,305,0.0,0.0,72,0.00,,---,0.00,VWS V14.01,2013-10-29 01:53:00,
2013-10-28 19:54:00,16.0,8.6,30.00,NW,315,0.0,0.0,72,0.00,,---,0.00,VWS V14.01,2013-10-29 01:54:00,
2013-10-28 19:56:00,16.0,8.6,30.00,NW,315,0.0,0.0,72,0.00,,---,0.00,VWS V14.01,2013-10-29 01:56:00,
2013-10-28 19:57:00,16.0,8.6,30.00,NW,315,0.0,0.0,72,0.00,,---,0.00,VWS V14.01,2013-10-29 01:57:00,
2013-10-28 19:58:00,16.0,8.6,30.00,NW,315,0.0,0.0,72,0.00,,---,0.00,VWS V14.01,2013-10-29 01:58:00,
2013-10-28 19:59:00,16.0,8.6,30.00,NW,315,0.0,0.0,72,0.00,,---,0.00,VWS V14.01,2013-10-29 01:59:00,
2013-10-28 20:00:00,16.0,8.6,30.00,NW,316,0.0,0.0,72,0.00,,,0.00,VWS V15.00,2013-10-29 02:00:00,
2013-10-28 20:01:00,16.0,8.6,30.00,NNW,332,3.1,3.1,72,0.00,,---,0.00,VWS V14.01,2013-10-29 02:01:00,
2013-10-28 20:02:00,16.0,8.6,30.00,NNW,336,0.0,2.2,72,0.00,,---,0.00,VWS V14.01,2013-10-29 02:02:00,
2013-10-28 20:03:00,16.0,8.6,30.00,NNW,338,2.2,3.1,72,0.00,,---,0.00,VWS V14.01,2013-10-29 02:03:00,
2013-10-28 20:05:00,16.0,8.6,30.00,NNW,337,0.0,2.7,72,0.00,,---,0.00,VWS V14.01,2013-10-29 02:05:00,
2013-10-28 20:06:00,16.0,8.6,30.00,NNW,337,0.0,0.0,72,0.00,,---,0.00,VWS V14.01,2013-10-29 02:06:00,
2013-10-28 20:07:00,16.0,8.6,30.00,NNW,335,0.0,0.0,72,0.00,,---,0.00,VWS V14.01,2013-10-29 02:07:00,
2013-10-28 20:08:00,16.0,8.6,30.00,NNW,335,0.0,0.0,72,0.00,,---,0.00,VWS V14.01,2013-10-29 02:08:00,
2013-10-28 20:09:00,16.0,8.6,30.00,NNW,335,0.0,0.0,72,0.00,,---,0.00,VWS V14.01,2013-10-29 02:09:00,
2013-10-28 20:10:00,16.0,8.6,30.00,NNW,335,0.0,0.0,72,0.00,,---,0.00,VWS V14.01,2013-10-29 02:10:00,
2013-10-28 20:11:00,16.0,8.6,30.00,NNW,335,0.0,0.0,72,0.00,,---,0.00,VWS V14.01,2013-10-29 02:11:00,
2013-10-28 20:12:00,16.0,8.6,30.00,NNW,335,0.0,0.0,72,0.00,,---,0.00,VWS V14.01,2013-10-29 02:12:00,
2013-10-28 20:13:00,16.0,8.6,30.00,NNW,340,0.0,0.0,72,0.00,,---,0.00,VWS V14.01,2013-10-29 02:13:00,
2013-10-28 20:14:00,16.0,8.9,30.00,NNW,340,0.0,0.0,73,0.00,,---,0.00,VWS V14.01,2013-10-29 02:14:00,
2013-10-28 20:15:00,16.0,8.9,30.00,NNW,339,0.0,0.0,73,0.00,,---,0.00,VWS V14.01,2013-10-29 02:15:00,
2013-10-28 20:16:00,16.0,8.9,30.00,NNW,338,2.2,2.7,73,0.00,,---,0.00,VWS V14.01,2013-10-29 02:16:00,
2013-10-28 20:17:00,16.0,8.9,30.00,NNW,338,0.0,0.0,73,0.00,,---,0.00,VWS V14.01,2013-10-29 02:17:00,
2013-10-28 20:18:00,16.0,8.9,30.00,NNW,330,0.0,0.0,73,0.00,,---,0.00,VWS V14.01,2013-10-29 02:18:00,
2013-10-28 20:19:00,16.0,8.9,30.00,NNW,330,0.0,0.0,73,0.00,,---,0.00,VWS V14.01,2013-10-29 02:19:00,
2013-10-28 20:20:00,16.0,8.9,30.00,NNW,338,0.0,2.2,73,0.00,,---,0.00,VWS V14.01,2013-10-29 02:20:00,
2013-10-28 20:21:00,16.0,8.9,30.00,NNW,337,0.0,0.0,73,0.00,,---,0.00,VWS V14.01,2013-10-29 02:21:00,
2013-10-28 20:22:00,16.0,8.9,30.00,NNW,337,0.0,0.0,73,0.00,,---,0.00,VWS V14.01,2013-10-29 02:22:00,
2013-10-28 20:24:00,16.0,8.9,30.00,NNW,337,0.0,0.0,73,0.00,,---,0.00,VWS V14.01,2013-10-29 02:24:00,
2013-10-28 20:26:00,16.2,9.0,30.00,NW,320,2.2,2.2,73,0.00,,---,0.00,VWS V14.01,2013-10-29 02:26:00,
2013-10-28 20:27:00,16.2,9.0,30.00,NW,320,2.2,2.7,73,0.00,,---,0.00,VWS V14.01,2013-10-29 02:27:00,
2013-10-28 20:29:00,16.2,9.0,30.00,NW,320,2.2,2.7,73,0.00,,---,0.00,VWS V14.01,2013-10-29 02:29:00,
2013-10-28 20:30:00,16.2,9.0,30.00,NW,320,0.0,0.0,73,0.00,,,0.00,VWS V15.00,2013-10-29 02:30:00,
2013-10-28 20:31:00,16.2,9.0,30.00,NW,321,0.0,0.0,73,0.00,,---,0.00,VWS V14.01,2013-10-29 02:31:00,
2013-10-28 20:32:00,16.2,9.0,30.00,NW,321,2.2,2.2,73,0.00,,---,0.00,VWS V14.01,2013-10-29 02:32:00,
2013-10-28 20:34:00,16.2,9.0,30.00,NW,321,2.2,2.2,73,0.00,,---,0.00,VWS V14.01,2013-10-29 02:34:00,
2013-10-28 20:35:00,16.2,9.0,30.00,NW,321,0.0,2.7,73,0.00,,---,0.00,VWS V14.01,2013-10-29 02:35:00,
2013-10-28 20:36:00,16.2,9.0,30.00,WNW,297,0.0,0.0,73,0.00,,---,0.00,VWS V14.01,2013-10-29 02:36:00,
2013-10-28 20:37:00,16.2,9.0,30.00,WNW,297,0.0,0.0,73,0.00,,---,0.00,VWS V14.01,2013-10-29 02:37:00,
2013-10-28 20:38:00,16.2,9.0,30.00,NW,306,0.0,2.2,73,0.00,,---,0.00,VWS V14.01,2013-10-29 02:38:00,
2013-10-28 20:39:00,16.2,9.0,30.00,NW,306,0.0,0.0,73,0.00,,---,0.00,VWS V14.01,2013-10-29 02:39:00,
2013-10-28 20:40:00,16.2,9.0,30.00,North,357,6.3,6.3,73,0.00,,---,0.00,VWS V14.01,2013-10-29 02:40:00,
2013-10-28 20:42:00,16.2,9.0,30.00,NNW,345,2.7,3.6,73,0.00,,---,0.00,VWS V14.01,2013-10-29 02:42:00,
2013-10-28 20:43:00,16.2,9.0,30.00,NNW,341,3.6,4.9,73,0.00,,---,0.00,VWS V14.01,2013-10-29 02:43:00,
2013-10-28 20:44:00,16.2,9.0,30.00,NNW,341,2.2,2.7,73,0.00,,---,0.00,VWS V14.01,2013-10-29 02:44:00,
2013-10-28 20:45:00,16.0,8.9,30.00,NNW,341,2.7,3.1,73,0.00,,---,0.00,VWS V14.01,2013-10-29 02:45:00,
2013-10-28 20:47:00,16.0,8.9,30.00,NW,323,2.7,2.7,73,0.00,,---,0.00,VWS V14.01,2013-10-29 02:47:00,
2013-10-28 20:48:00,16.0,8.9,30.00,NW,325,0.0,2.2,73,0.00,,---,0.00,VWS V14.01,2013-10-29 02:48:00,
2013-10-28 20:49:00,16.0,8.9,30.00,NW,323,0.0,0.0,73,0.00,,---,0.00,VWS V14.01,2013-10-29 02:49:00,
2013-10-28 20:51:00,16.0,8.9,30.00,NW,322,0.0,0.0,73,0.00,,---,0.00,VWS V14.01,2013-10-29 02:51:00,
2013-10-28 20:52:00,16.2,9.0,30.00,NW,323,0.0,0.0,73,0.00,,---,0.00,VWS V14.01,2013-10-29 02:52:00,
2013-10-28 20:53:00,16.2,9.0,30.00,NW,323,0.0,0.0,73,0.00,,---,0.00,VWS V14.01,2013-10-29 02:53:00,
2013-10-28 20:54:00,16.2,9.0,30.00,NW,323,0.0,0.0,73,0.00,,---,0.00,VWS V14.01,2013-10-29 02:54:00,
2013-10-28 20:56:00,16.2,9.0,30.00,NW,323,0.0,0.0,73,0.00,,---,0.00,VWS V14.01,2013-10-29 02:56:00,
2013-10-28 20:57:00,16.2,9.0,30.00,NW,323,0.0,0.0,73,0.00,,---,0.00,VWS V14.01,2013-10-29 02:57:00,
2013-10-28 20:58:00,16.2,9.0,30.00,NW,325,0.0,0.0,73,0.00,,---,0.00,VWS V14.01,2013-10-29 02:58:00,
2013-10-28 20:59:00,16.2,9.0,30.00,NNW,328,0.0,0.0,73,0.00,,---,0.00,VWS V14.01,2013-10-29 02:59:00,
2013-10-28 21:00:00,16.2,9.0,30.00,NNW,328,0.0,0.0,73,0.00,,,0.00,VWS V15.00,2013-10-29 03:00:00,
2013-10-28 21:01:00,16.2,9.0,30.00,NNW,328,0.0,0.0,73,0.00,,---,0.00,VWS V14.01,2013-10-29 03:01:00,
2013-10-28 21:02:00,16.2,9.0,30.00,NNW,327,0.0,0.0,73,0.00,,---,0.00,VWS V14.01,2013-10-29 03:02:00,
2013-10-28 21:03:00,16.2,9.0,30.00,NNW,327,0.0,0.0,73,0.00,,---,0.00,VWS V14.01,2013-10-29 03:03:00,
2013-10-28 21:04:00,16.2,9.0,30.00,NW,310,4.0,4.0,73,0.00,,---,0.00,VWS V14.01,2013-10-29 03:04:00,
2013-10-28 21:05:00,16.2,9.0,30.00,NW,310,0.0,4.0,73,0.00,,---,0.00,VWS V14.01,2013-10-29 03:05:00,
2013-10-28 21:06:00,16.2,9.0,30.00,NW,310,0.0,0.0,73,0.00,,---,0.00,VWS V14.01,2013-10-29 03:06:00,
2013-10-28 21:07:00,16.2,9.0,30.00,NW,309,0.0,0.0,73,0.00,,---,0.00,VWS V14.01,2013-10-29 03:07:00,
2013-10-28 21:08:00,16.2,9.4,30.00,NNW,329,0.0,0.0,74,0.00,,---,0.00,VWS V14.01,2013-10-29 03:08:00,
2013-10-28 21:09:00,16.2,9.4,30.00,NNW,330,2.2,2.2,74,0.00,,---,0.00,VWS V14.01,2013-10-29 03:09:00,
2013-10-28 21:10:00,16.2,9.4,30.00,NNW,330,0.0,0.0,74,0.00,,---,0.00,VWS V14.01,2013-10-29 03:10:00,
2013-10-28 21:11:00,16.2,9.4,30.00,NNW,329,2.7,2.7,74,0.00,,---,0.00,VWS V14.01,2013-10-29 03:11:00,
2013-10-28 21:13:00,16.2,9.4,30.00,NW,324,0.0,0.0,74,0.00,,---,0.00,VWS V14.01,2013-10-29 03:13:00,
2013-10-28 21:14:00,16.2,9.4,30.00,NW,324,0.0,0.0,74,0.00,,---,0.00,VWS V14.01,2013-10-29 03:14:00,
2013-10-28 21:15:00,16.2,9.4,30.00,NW,324,0.0,0.0,74,0.00,,---,0.00,VWS V14.01,2013-10-29 03:15:00,
2013-10-28 21:16:00,16.2,9.4,30.00,NW,324,0.0,0.0,74,0.00,,---,0.00,VWS V14.01,2013-10-29 03:16:00,
2013-10-28 21:18:00,16.2,9.0,30.00,NW,324,0.0,0.0,73,0.00,,---,0.00,VWS V14.01,2013-10-29 03:18:00,
2013-10-28 21:19:00,16.2,9.0,30.00,NW,324,0.0,0.0,73,0.00,,---,0.00,VWS V14.01,2013-10-29 03:19:00,
2013-10-28 21:20:00,16.2,9.4,30.00,NW,324,0.0,0.0,74,0.00,,---,0.00,VWS V14.01,2013-10-29 03:20:00,
2013-10-28 21:21:00,16.2,9.4,30.00,NW,324,0.0,0.0,74,0.00,,---,0.00,VWS V14.01,2013-10-29 03:21:00,
2013-10-28 21:23:00,16.2,9.4,30.00,NW,324,0.0,0.0,74,0.00,,---,0.00,VWS V14.01,2013-10-29 03:23:00,
2013-10-28 21:24:00,16.2,9.4,30.00,NW,321,0.0,0.0,74,0.00,,---,0.00,VWS V14.01,2013-10-29 03:24:00,
2013-10-28 21:25:00,16.2,9.4,30.00,NW,318,0.0,0.0,74,0.00,,---,0.00,VWS V14.01,2013-10-29 03:25:00,
2013-10-28 21:26:00,16.2,9.4,30.00,NW,317,0.0,0.0,74,0.00,,---,0.00,VWS V14.01,2013-10-29 03:26:00,
2013-10-28 21:27:00,16.2,9.4,30.00,NW,317,0.0,0.0,74,0.00,,---,0.00,VWS V14.01,2013-10-29 03:27:00,
2013-10-28 21:28:00,16.2,9.4,30.00,NW,317,0.0,0.0,74,0.00,,---,0.00,VWS V14.01,2013-10-29 03:28:00,
2013-10-28 21:29:00,16.2,9.4,30.00,NW,317,0.0,0.0,74,0.00,,---,0.00,VWS V14.01,2013-10-29 03:29:00,
2013-10-28 21:30:00,16.2,9.4,30.00,NW,317,0.0,0.0,74,0.00,,---,0.00,VWS V14.01,2013-10-29 03:30:00,
2013-10-28 21:31:00,16.2,9.4,30.03,NW,317,0.0,0.0,74,0.00,,---,0.00,VWS V14.01,2013-10-29 03:31:00,
2013-10-28 21:32:00,16.2,9.4,30.03,NW,317,0.0,0.0,74,0.00,,---,0.00,VWS V14.01,2013-10-29 03:32:00,
2013-10-28 21:34:00,16.2,9.4,30.03,NW,318,0.0,0.0,74,0.00,,---,0.00,VWS V14.01,2013-10-29 03:34:00,
2013-10-28 21:35:00,16.2,9.4,30.03,NW,318,0.0,0.0,74,0.00,,---,0.00,VWS V14.01,2013-10-29 03:35:00,
2013-10-28 21:36:00,16.2,9.4,30.03,NW,318,0.0,0.0,74,0.00,,---,0.00,VWS V14.01,2013-10-29 03:36:00,
2013-10-28 21:37:00,16.2,9.4,30.03,North,357,5.4,5.4,74,0.00,,---,0.00,VWS V14.01,2013-10-29 03:37:00,
2013-10-28 21:38:00,16.2,9.4,30.03,North,357,0.0,4.0,74,0.00,,---,0.00,VWS V14.01,2013-10-29 03:38:00,
2013-10-28 21:39:00,16.2,9.4,30.03,NNW,341,0.0,0.0,74,0.00,,---,0.00,VWS V14.01,2013-10-29 03:39:00,
2013-10-28 21:40:00,16.2,9.4,30.03,North,357,2.2,4.0,74,0.00,,---,0.00,VWS V14.01,2013-10-29 03:40:00,
2013-10-28 21:41:00,16.2,9.4,30.03,North,0,3.6,3.6,74,0.00,,---,0.00,VWS V14.01,2013-10-29 03:41:00,
2013-10-28 21:42:00,16.2,9.4,30.03,NNW,328,2.7,2.7,74,0.00,,---,0.00,VWS V14.01,2013-10-29 03:42:00,
2013-10-28 21:43:00,16.0,9.2,30.03,NW,323,3.1,3.1,74,0.00,,---,0.00,VWS V14.01,2013-10-29 03:43:00,
2013-10-28 21:44:00,16.0,9.2,30.03,NNW,340,3.6,3.6,74,0.00,,---,0.00,VWS V14.01,2013-10-29 03:44:00,
2013-10-28 21:45:00,16.0,9.2,30.03,NNW,340,2.7,2.7,74,0.00,,---,0.00,VWS V14.01,2013-10-29 03:45:00,
2013-10-28 21:46:00,16.0,9.2,30.00,NNW,340,0.0,0.0,74,0.00,,---,0.00,VWS V14.01,2013-10-29 03:46:00,
2013-10-28 21:47:00,16.0,9.2,30.00,NNW,337,0.0,0.0,74,0.00,,---,0.00,VWS V14.01,2013-10-29 03:47:00,
2013-10-28 21:48:00,16.0,9.2,30.00,NNW,338,0.0,0.0,74,0.00,,---,0.00,VWS V14.01,2013-10-29 03:48:00,
2013-10-28 21:49:00,16.0,9.2,30.00,NNW,344,3.1,3.1,74,0.00,,---,0.00,VWS V14.01,2013-10-29 03:49:00,
2013-10-28 21:50:00,16.0,9.2,30.00,NNW,342,2.7,3.6,74,0.00,,---,0.00,VWS V14.01,2013-10-29 03:50:00,
2013-10-28 21:52:00,16.0,9.2,30.00,NNW,342,0.0,0.0,74,0.00,,---,0.00,VWS V14.01,2013-10-29 03:52:00,
2013-10-28 21:53:00,16.0,9.2,30.00,NNW,344,0.0,0.0,74,0.00,,---,0.00,VWS V14.01,2013-10-29 03:53:00,
2013-10-28 21:55:00,16.0,9.2,30.00,NNW,344,0.0,0.0,74,0.00,,---,0.00,VWS V14.01,2013-10-29 03:55:00,
2013-10-28 21:57:00,16.0,9.2,30.00,NNW,343,0.0,0.0,74,0.00,,---,0.00,VWS V14.01,2013-10-29 03:57:00,
2013-10-28 21:58:00,16.0,9.2,30.00,NNW,343,0.0,0.0,74,0.00,,---,0.00,VWS V14.01,2013-10-29 03:58:00,
2013-10-28 22:00:00,16.0,9.2,30.00,NNW,343,0.0,0.0,74,0.00,,---,0.00,VWS V14.01,2013-10-29 04:00:00,
2013-10-28 22:01:00,16.0,9.2,30.00,NNW,343,0.0,0.0,74,0.00,,---,0.00,VWS V14.01,2013-10-29 04:01:00,
2013-10-28 22:06:00,16.2,9.6,30.00,NNW,338,0.0,0.0,75,0.00,,---,0.00,VWS V14.01,2013-10-29 04:06:00,
2013-10-28 22:11:00,16.2,9.6,30.00,North,4,2.7,2.7,75,0.00,,---,0.00,VWS V14.01,2013-10-29 04:11:00,
2013-10-28 22:12:00,16.2,9.6,30.00,North,4,0.0,0.0,75,0.00,,---,0.00,VWS V14.01,2013-10-29 04:12:00,
2013-10-28 22:15:00,16.2,9.6,30.00,North,4,0.0,0.0,75,0.00,,,0.00,VWS V15.00,2013-10-29 04:15:00,
2013-10-28 22:16:00,16.2,9.6,30.00,North,4,0.0,0.0,75,0.00,,---,0.00,VWS V14.01,2013-10-29 04:16:00,
2013-10-28 22:17:00,16.2,9.6,30.00,North,4,0.0,0.0,75,0.00,,---,0.00,VWS V14.01,2013-10-29 04:17:00,
2013-10-28 22:21:00,16.2,9.6,30.00,North,4,0.0,0.0,75,0.00,,---,0.00,VWS V14.01,2013-10-29 04:21:00,
2013-10-28 22:22:00,16.2,9.6,30.00,North,4,0.0,0.0,75,0.00,,---,0.00,VWS V14.01,2013-10-29 04:22:00,
2013-10-28 22:26:00,16.2,9.6,30.00,North,10,0.0,0.0,75,0.00,,---,0.00,VWS V14.01,2013-10-29 04:26:00,
2013-10-28 22:27:00,16.2,9.6,30.00,North,10,0.0,0.0,75,0.00,,---,0.00,VWS V14.01,2013-10-29 04:27:00,
2013-10-28 22:28:00,16.2,9.6,30.00,North,10,0.0,0.0,75,0.00,,---,0.00,VWS V14.01,2013-10-29 04:28:00,
2013-10-28 22:30:00,16.2,9.6,30.00,North,10,0.0,0.0,75,0.00,,,0.00,VWS V15.00,2013-10-29 04:30:00,
2013-10-28 22:31:00,16.2,9.6,30.00,North,10,0.0,0.0,75,0.00,,---,0.00,VWS V14.01,2013-10-29 04:31:00,
2013-10-28 22:32:00,16.2,9.6,30.00,North,10,0.0,0.0,75,0.00,,---,0.00,VWS V14.01,2013-10-29 04:32:00,
2013-10-28 22:33:00,16.2,9.6,30.00,North,10,0.0,0.0,75,0.00,,---,0.00,VWS V14.01,2013-10-29 04:33:00,
2013-10-28 22:37:00,16.3,9.8,30.00,North,10,0.0,0.0,75,0.00,,---,0.00,VWS V14.01,2013-10-29 04:37:00,
2013-10-28 22:38:00,16.3,9.8,30.00,North,10,0.0,0.0,75,0.00,,---,0.00,VWS V14.01,2013-10-29 04:38:00,
2013-10-28 22:42:00,16.3,9.8,30.00,North,10,0.0,0.0,75,0.00,,---,0.00,VWS V14.01,2013-10-29 04:42:00,
2013-10-28 22:43:00,16.3,9.8,30.00,North,10,0.0,0.0,75,0.00,,---,0.00,VWS V14.01,2013-10-29 04:43:00,
2013-10-28 22:45:00,16.3,9.8,30.00,North,10,0.0,0.0,75,0.00,,,0.00,VWS V15.00,2013-10-29 04:45:00,
2013-10-28 22:47:00,16.3,9.8,30.00,North,10,0.0,0.0,75,0.00,,---,0.00,VWS V14.01,2013-10-29 04:47:00,
2013-10-28 22:48:00,16.3,9.8,30.00,North,10,0.0,0.0,75,0.00,,---,0.00,VWS V14.01,2013-10-29 04:48:00,
2013-10-28 22:52:00,16.3,9.8,30.00,North,10,0.0,0.0,75,0.00,,---,0.00,VWS V14.01,2013-10-29 04:52:00,
2013-10-28 22:53:00,16.3,9.8,30.00,North,10,0.0,0.0,75,0.00,,---,0.00,VWS V14.01,2013-10-29 04:53:00,
2013-10-28 22:57:00,16.3,9.8,30.00,North,10,0.0,0.0,75,0.00,,---,0.00,VWS V14.01,2013-10-29 04:57:00,
2013-10-28 22:58:00,16.3,9.8,30.00,North,10,0.0,0.0,75,0.00,,---,0.00,VWS V14.01,2013-10-29 04:58:00,
2013-10-28 22:59:00,16.3,9.8,30.00,North,10,0.0,0.0,75,0.00,,---,0.00,VWS V14.01,2013-10-29 04:59:00,
2013-10-28 23:00:00,16.3,9.8,30.00,North,10,0.0,0.0,75,0.00,,,0.00,VWS V15.00,2013-10-29 05:00:00,
2013-10-28 23:02:00,16.3,9.8,30.00,North,10,0.0,0.0,75,0.00,,---,0.00,VWS V14.01,2013-10-29 05:02:00,
2013-10-28 23:03:00,16.3,9.8,30.00,North,10,0.0,0.0,75,0.00,,---,0.00,VWS V14.01,2013-10-29 05:03:00,
2013-10-28 23:04:00,16.3,9.8,30.00,North,10,0.0,0.0,75,0.00,,---,0.00,VWS V14.01,2013-10-29 05:04:00,
2013-10-28 23:07:00,16.3,9.8,30.00,North,10,0.0,0.0,75,0.00,,---,0.00,VWS V14.01,2013-10-29 05:07:00,
2013-10-28 23:08:00,16.3,9.8,30.00,North,10,0.0,0.0,75,0.00,,---,0.00,VWS V14.01,2013-10-29 05:08:00,
2013-10-28 23:09:00,16.3,9.8,30.00,North,10,0.0,0.0,75,0.00,,---,0.00,VWS V14.01,2013-10-29 05:09:00,
2013-10-28 23:12:00,16.3,9.8,30.00,North,10,0.0,0.0,75,0.00,,---,0.00,VWS V14.01,2013-10-29 05:12:00,
2013-10-28 23:13:00,16.3,9.8,30.00,North,10,0.0,0.0,75,0.00,,---,0.00,VWS V14.01,2013-10-29 05:13:00,
2013-10-28 23:14:00,16.3,9.8,30.00,North,10,0.0,0.0,75,0.00,,---,0.00,VWS V14.01,2013-10-29 05:14:00,
2013-10-28 23:15:00,16.3,9.8,30.00,North,10,0.0,0.0,75,0.00,,,0.00,VWS V15.00,2013-10-29 05:15:00,
2013-10-28 23:17:00,16.3,9.8,30.00,North,10,0.0,0.0,75,0.00,,---,0.00,VWS V14.01,2013-10-29 05:17:00,
2013-10-28 23:18:00,16.3,9.8,30.00,North,10,0.0,0.0,75,0.00,,---,0.00,VWS V14.01,2013-10-29 05:18:00,
2013-10-28 23:19:00,16.3,9.8,30.00,North,10,0.0,0.0,75,0.00,,---,0.00,VWS V14.01,2013-10-29 05:19:00,
2013-10-28 23:22:00,16.3,9.8,30.00,North,10,0.0,0.0,75,0.00,,---,0.00,VWS V14.01,2013-10-29 05:22:00,
2013-10-28 23:23:00,16.3,9.8,30.00,North,10,0.0,0.0,75,0.00,,---,0.00,VWS V14.01,2013-10-29 05:23:00,
2013-10-28 23:24:00,16.3,9.8,30.00,North,10,0.0,0.0,75,0.00,,---,0.00,VWS V14.01,2013-10-29 05:24:00,
2013-10-28 23:25:00,16.3,9.8,30.00,North,10,0.0,0.0,75,0.00,,---,0.00,VWS V14.01,2013-10-29 05:25:00,
2013-10-28 23:27:00,16.3,9.8,30.00,North,10,0.0,0.0,75,0.00,,---,0.00,VWS V14.01,2013-10-29 05:27:00,
2013-10-28 23:28:00,16.3,9.8,30.00,North,10,0.0,0.0,75,0.00,,---,0.00,VWS V14.01,2013-10-29 05:28:00,
2013-10-28 23:29:00,16.3,9.8,30.00,North,10,0.0,0.0,75,0.00,,---,0.00,VWS V14.01,2013-10-29 05:29:00,
2013-10-28 23:30:00,16.3,9.8,30.00,North,10,0.0,0.0,75,0.00,,---,0.00,VWS V14.01,2013-10-29 05:30:00,
2013-10-28 23:32:00,16.3,9.8,30.00,North,10,0.0,0.0,75,0.00,,---,0.00,VWS V14.01,2013-10-29 05:32:00,
2013-10-28 23:33:00,16.3,9.8,30.00,North,10,0.0,0.0,75,0.00,,---,0.00,VWS V14.01,2013-10-29 05:33:00,
2013-10-28 23:34:00,16.3,9.8,30.00,North,10,0.0,0.0,75,0.00,,---,0.00,VWS V14.01,2013-10-29 05:34:00,
2013-10-28 23:35:00,16.3,9.8,30.00,North,10,0.0,0.0,75,0.00,,---,0.00,VWS V14.01,2013-10-29 05:35:00,
2013-10-28 23:37:00,16.3,9.8,30.00,North,10,0.0,0.0,75,0.00,,---,0.00,VWS V14.01,2013-10-29 05:37:00,
2013-10-28 23:38:00,16.3,9.8,30.00,North,10,0.0,0.0,75,0.00,,---,0.00,VWS V14.01,2013-10-29 05:38:00,
2013-10-28 23:39:00,16.3,9.8,30.00,North,10,0.0,0.0,75,0.00,,---,0.00,VWS V14.01,2013-10-29 05:39:00,
2013-10-28 23:41:00,16.3,9.8,30.00,North,10,0.0,0.0,75,0.00,,---,0.00,VWS V14.01,2013-10-29 05:41:00,
2013-10-28 23:43:00,16.3,9.8,30.00,North,10,0.0,0.0,75,0.00,,---,0.00,VWS V14.01,2013-10-29 05:43:00,
2013-10-28 23:44:00,16.3,9.8,30.00,North,10,0.0,0.0,75,0.00,,---,0.00,VWS V14.01,2013-10-29 05:44:00,
2013-10-28 23:45:00,16.3,9.8,30.00,North,10,0.0,0.0,75,0.00,,---,0.00,VWS V14.01,2013-10-29 05:45:00,
2013-10-28 23:46:00,16.5,10.0,30.00,North,10,0.0,0.0,75,0.00,,---,0.00,VWS V14.01,2013-10-29 05:46:00,
2013-10-28 23:48:00,16.5,10.0,30.00,North,10,0.0,0.0,75,0.00,,---,0.00,VWS V14.01,2013-10-29 05:48:00,
2013-10-28 23:49:00,16.5,10.0,30.00,North,10,0.0,0.0,75,0.00,,---,0.00,VWS V14.01,2013-10-29 05:49:00,
2013-10-28 23:50:00,16.5,10.0,30.00,North,10,0.0,0.0,75,0.00,,---,0.00,VWS V14.01,2013-10-29 05:50:00,
2013-10-28 23:52:00,16.5,9.7,30.00,North,10,0.0,0.0,74,0.00,,---,0.00,VWS V14.01,2013-10-29 05:52:00,
2013-10-28 23:53:00,16.5,9.7,30.00,North,10,0.0,0.0,74,0.00,,---,0.00,VWS V14.01,2013-10-29 05:53:00,
2013-10-28 23:54:00,16.5,9.7,30.00,North,10,0.0,0.0,74,0.00,,---,0.00,VWS V14.01,2013-10-29 05:54:00,
2013-10-28 23:55:00,16.3,9.5,30.00,North,10,0.0,0.0,74,0.00,,---,0.00,VWS V14.01,2013-10-29 05:55:00,
2013-10-28 23:57:00,16.5,9.7,30.00,North,10,0.0,0.0,74,0.00,,---,0.00,VWS V14.01,2013-10-29 05:57:00,
2013-10-28 23:58:00,16.5,9.7,30.00,North,10,0.0,0.0,74,0.00,,---,0.00,VWS V14.01,2013-10-29 05:58:00,
2013-10-28 23:59:00,16.5,9.7,30.00,North,10,0.0,0.0,74,0.00,,---,0.00,VWS V14.01,2013-10-29 05:59:00,